GFSMA_925_rhum_051.txt.gz
RH
69 57 48 52 62 69 70 71 71 71 74 73 68 66 60 54 44 38 38 36 39 52 67 92 95 90 85 86 91 92 92 93 91 93 90 93 94 93 92 91 90 91 91
76 73 70 55 56 63 66 71 74 76 78 77 73 71 70 63 58 51 47 41 36 40 52 67 91 92 89 84 85 87 92 92 91 93 91 93 92 91 92 92 90 87 88
80 79 79 78 68 66 71 73 75 77 78 78 78 76 76 75 71 68 60 54 45 37 40 50 79 91 92 90 82 86 91 86 91 89 93 92 92 92 91 90 91 90 89
79 82 82 78 76 78 76 76 76 78 77 77 78 77 78 80 80 78 74 65 59 52 43 42 50 75 90 90 86 83 84 85 85 89 92 90 91 91 90 89 88 88 86
74 78 79 78 78 80 81 82 82 82 81 82 79 80 82 83 84 84 81 78 64 55 49 44 47 60 76 86 85 80 83 91 90 88 89 87 90 88 87 86 84 84 83
76 79 81 80 80 82 82 80 82 83 85 88 91 91 90 92 92 88 84 83 81 66 57 51 43 50 67 82 89 84 77 81 93 94 88 83 86 86 84 84 83 82 82
85 86 87 84 82 80 78 80 87 88 93 91 100 97 86 86 81 71 69 70 73 75 65 51 44 45 55 75 83 87 83 78 84 94 92 86 83 83 83 81 80 81 81
95 97 97 95 94 90 86 88 90 100 100 100 99 98 90 72 67 64 62 62 59 61 59 54 50 48 46 57 73 76 85 81 76 88 95 88 83 79 78 79 77 80 82
98 100 100 100 100 100 100 98 99 100 100 98 98 98 90 80 76 70 69 63 67 65 62 61 60 56 50 53 66 77 76 80 86 82 93 99 86 82 78 75 77 81 80
37 38 39 44 51 65 81 85 93 99 100 100 98 89 98 97 94 91 72 67 71 73 68 70 73 68 58 55 54 58 71 77 78 90 89 80 97 95 81 82 85 79 76
51 52 53 48 43 45 53 58 66 93 100 100 95 92 96 97 99 94 91 84 76 74 80 76 75 74 74 72 70 69 61 67 80 93 98 96 96 84 92 94 92 91 88
45 49 51 55 58 64 66 73 81 91 100 100 100 98 99 94 91 92 93 92 88 81 78 77 80 77 75 74 74 74 76 78 87 96 96 100 94 68 92 79 99 91 98
56 54 54 68 76 83 93 97 100 100 99 99 98 99 97 95 97 99 97 94 95 91 78 69 77 77 76 75 73 72 71 72 86 99 99 100 99 98 73 96 98 100 98
75 73 73 91 93 89 93 98 97 99 100 100 99 98 96 95 98 100 99 97 96 92 88 79 72 78 82 86 84 79 76 77 83 100 100 99 100 99 97 100 98 99 98
87 89 92 92 89 83 80 86 99 100 99 99 98 94 89 87 97 99 97 96 96 94 79 93 90 86 86 85 82 83 81 84 98 98 98 100 100 100 100 100 99 98 98
92 94 95 93 90 86 84 84 96 98 98 97 94 91 89 87 85 84 82 88 98 98 93 98 96 97 90 90 91 88 94 97 99 88 100 100 98 100 99 98 96 92 84
89 90 91 92 90 88 90 92 98 96 98 98 97 94 92 90 90 86 87 92 96 99 99 100 99 94 91 93 96 96 98 100 100 100 100 97 86 89 91 89 92 93 92
85 86 89 90 90 89 90 92 95 100 99 97 96 95 95 96 94 94 94 94 94 96 98 99 100 95 96 95 98 96 98 98 98 98 96 94 97 98 97 96 96 96 97
85 88 89 88 90 91 91 92 92 94 96 97 97 95 96 97 98 96 93 92 94 95 96 99 99 99 96 94 96 96 98 98 96 94 95 93 98 98 99 98 98 98 98
92 93 92 90 89 91 93 96 98 100 100 100 98 99 97 96 94 94 93 94 93 94 97 99 99 97 97 96 98 98 97 88 87 88 88 92 95 92 94 95 95 94 93
98 99 99 99 99 96 99 100 98 99 99 98 99 99 100 99 93 90 94 95 94 97 98 99 98 96 94 91 94 92 90 80 74 67 64 63 62 64 67 70 66 62 61
100 99 99 99 99 100 100 100 98 97 96 95 96 95 92 92 98 99 99 99 99 96 92 91 91 80 81 80 80 81 80 73 65 68 74 64 53 52 43 36 33 34 28
99 99 99 100 99 99 100 90 89 89 87 83 79 78 76 74 73 81 81 82 79 87 82 80 80 82 79 78 75 78 82 84 76 79 82 65 54 60 50 51 51 52 70
99 100 100 100 98 99 97 80 75 68 59 50 47 52 64 86 87 64 59 62 68 80 83 80 82 84 84 89 88 88 88 86 75 80 67 73 72 66 59 55 54 55 66
96 92 92 85 75 77 59 44 41 41 45 51 66 73 71 86 89 90 68 61 57 75 79 80 78 77 80 82 84 83 91 86 68 65 71 80 75 78 76 74 65 80 80
93 90 82 72 72 77 74 44 43 41 43 47 50 54 75 86 85 85 80 69 61 66 72 69 54 44 43 46 50 54 59 78 75 70 73 89 84 85 76 70 64 63 62

GFSMA_925_rhum_054.txt.gz
RH
74 68 61 62 66 70 71 74 76 72 73 73 72 70 67 61 53 45 45 46 38 40 54 76 96 97 92 90 83 90 92 93 89 93 92 89 93 93 91 92 91 89 87
78 76 72 67 62 69 72 75 75 77 76 77 76 74 73 70 62 55 52 53 56 43 38 48 67 89 94 93 87 81 88 91 88 91 94 93 90 90 91 92 91 82 88
81 79 76 76 73 71 75 78 79 81 81 79 79 76 76 73 71 66 62 58 58 60 54 41 46 84 89 91 90 91 87 83 82 86 92 92 92 93 92 90 91 88 90
83 83 81 80 79 79 80 79 78 78 79 78 76 74 74 75 75 74 73 68 62 61 62 62 47 49 85 88 89 88 90 93 89 78 89 91 89 91 91 91 89 88 87
83 84 82 82 82 82 82 82 81 82 80 77 76 76 75 77 78 76 74 73 72 71 66 62 62 49 52 70 88 85 82 89 93 94 85 87 85 89 88 88 86 86 84
84 85 84 85 86 85 85 83 87 85 86 81 78 82 79 80 82 79 71 68 69 71 71 69 68 68 62 55 73 89 82 80 92 95 94 91 85 87 85 84 84 83 83
85 89 91 90 90 91 87 86 86 88 89 96 99 92 79 74 71 66 67 64 63 65 66 67 67 65 64 66 61 80 92 83 79 91 97 93 88 88 85 82 82 80 81
98 99 100 100 100 99 97 94 94 97 100 100 100 99 76 52 55 64 63 61 60 59 61 62 63 62 65 67 71 81 89 92 83 82 94 99 94 89 86 82 79 78 79
98 99 100 99 99 100 97 96 99 100 100 98 96 94 74 54 62 59 65 62 62 61 63 66 66 69 70 70 72 72 66 80 82 89 89 95 98 99 96 94 91 85 89
42 41 40 51 76 90 94 97 100 99 100 96 99 99 88 87 84 84 68 63 69 67 68 70 69 70 71 73 76 66 60 64 74 92 90 90 98 95 90 87 96 88 88
46 49 52 54 52 56 70 79 83 90 98 99 96 99 98 100 98 94 83 64 67 62 66 72 75 76 80 85 88 87 74 75 67 83 91 86 89 99 98 96 89 95 96
54 51 50 60 66 88 84 83 87 98 99 100 98 98 93 88 90 86 88 82 77 73 76 80 79 81 81 83 78 72 70 69 70 89 98 96 95 99 99 89 95 94 99
71 76 63 83 91 96 97 99 97 98 98 97 99 100 99 98 94 94 96 86 79 76 68 78 83 84 82 89 89 79 77 73 72 96 100 100 98 94 99 98 96 90 99
84 92 91 94 96 96 99 98 92 95 99 100 100 100 100 99 97 99 96 80 80 77 70 71 90 92 92 86 83 77 96 85 74 94 99 100 97 98 100 94 100 94 100
87 91 94 97 94 90 86 98 99 100 100 100 100 100 99 98 100 99 99 100 88 79 74 84 81 87 81 82 77 95 85 96 98 90 97 99 96 99 97 98 100 96 98
88 92 96 95 93 90 90 91 100 98 95 95 94 96 96 96 91 89 92 93 99 91 83 94 96 87 82 87 92 92 90 99 99 99 99 100 100 98 97 99 95 95 97
87 89 91 92 92 91 93 97 100 98 98 97 95 95 93 91 96 96 97 98 98 98 91 99 96 91 91 96 98 99 98 96 97 99 100 100 96 94 93 92 97 94 92
86 87 90 92 91 90 92 93 98 98 97 94 96 98 97 95 97 96 97 98 100 92 99 99 99 100 96 98 95 98 99 96 99 94 100 97 95 94 92 92 92 90 87
88 87 90 91 91 92 91 91 92 96 97 96 96 94 94 95 98 98 95 98 96 94 97 100 98 99 100 89 93 95 92 85 83 84 88 90 86 85 90 94 93 98 98
91 91 92 93 96 98 96 95 98 100 100 100 99 98 98 99 99 98 93 91 91 99 100 100 99 98 100 99 98 96 82 86 82 77 74 72 74 78 84 94 97 93 95
95 96 99 99 100 100 100 100 99 99 99 99 99 99 99 94 89 91 99 99 98 95 95 99 91 87 83 76 76 75 68 62 60 69 61 56 59 59 61 63 64 66 72
100 100 99 100 100 100 98 99 99 99 99 100 98 94 98 98 98 97 97 98 94 94 98 92 88 70 68 64 62 64 64 60 55 71 62 49 51 50 48 50 53 36 32
100 100 99 99 100 100 100 97 96 96 93 92 94 97 93 90 86 88 88 88 83 83 67 71 59 57 57 65 81 83 76 69 58 58 68 51 52 48 52 54 54 47 49
100 99 99 100 100 100 94 81 76 69 62 56 52 56 78 82 82 68 70 73 74 79 82 76 75 76 79 82 83 83 79 74 62 57 68 60 54 56 57 61 67 54 52
99 98 98 96 90 86 70 43 33 36 40 49 67 73 72 78 91 80 74 73 58 70 72 70 72 70 70 72 76 76 80 69 58 46 60 68 60 63 60 62 66 60 63
94 92 86 76 66 74 52 32 32 53 55 51 54 60 64 80 84 85 77 62 52 55 70 74 58 50 47 54 44 65 70 80 68 70 67 77 75 76 78 61 64 67 70

GFSMA_925_rhum_057.txt.gz
RH
65 57 51 52 53 55 59 60 66 62 63 64 64 64 63 61 58 51 48 49 54 46 39 50 94 97 94 92 92 83 85 88 83 89 95 86 90 93 92 92 92 86 87
67 66 60 56 52 56 61 63 64 66 67 66 66 66 66 66 66 60 56 54 56 60 56 43 44 84 89 96 94 89 78 80 82 85 92 93 87 87 90 91 90 82 86
70 68 67 66 65 60 63 65 68 70 70 70 68 67 67 68 67 66 65 63 60 60 62 62 52 48 84 87 91 94 94 81 75 78 86 93 92 91 94 89 91 84 89
72 72 71 72 71 70 71 71 70 69 68 67 66 66 66 66 65 66 67 68 69 64 62 63 64 57 56 87 86 90 95 95 93 82 74 78 87 88 91 91 89 87 84
71 74 73 72 73 74 73 73 73 72 72 72 74 71 68 68 65 67 68 68 68 70 71 68 65 64 64 53 77 86 86 92 96 96 94 93 89 88 89 89 89 88 86
74 75 74 73 73 76 78 77 75 77 78 76 75 74 73 74 71 72 69 65 60 64 68 70 70 70 68 66 59 81 88 88 88 95 97 95 95 90 90 87 86 85 84
75 77 79 78 77 78 78 77 76 78 80 82 87 90 82 70 65 65 60 58 57 59 62 64 66 66 64 63 64 68 81 90 93 91 93 96 95 91 92 88 85 83 81
84 85 86 88 89 90 88 86 86 86 86 92 95 97 83 55 54 59 59 60 60 60 61 60 63 62 64 66 68 70 75 91 96 96 94 96 95 99 96 94 88 84 80
87 94 98 98 98 96 96 95 94 92 96 91 95 92 78 63 58 55 62 62 61 62 64 66 67 68 70 70 71 73 74 74 74 89 96 90 93 92 96 93 97 88 84
61 57 54 54 61 80 91 90 94 93 90 93 97 95 86 83 81 76 65 63 62 60 60 63 67 69 73 77 80 86 77 66 63 67 90 92 86 97 95 97 98 95 89
50 48 51 59 64 67 61 66 73 81 89 91 84 78 82 91 92 96 88 70 63 62 60 68 73 75 79 84 83 73 70 68 67 73 98 96 88 88 93 99 100 94 94
59 59 53 52 69 79 85 86 88 87 90 90 90 89 90 92 93 93 94 78 82 70 67 65 75 79 82 83 85 77 74 73 71 68 91 95 97 99 99 97 100 96 99
60 66 76 76 80 87 92 96 97 97 98 94 84 91 93 94 90 90 89 89 87 70 66 70 78 82 86 88 86 72 90 78 77 79 96 98 100 99 96 98 90 98 98
70 79 84 86 87 90 94 94 95 92 99 99 97 100 100 100 99 98 96 94 89 74 67 64 84 84 81 84 82 81 88 99 100 99 85 100 99 91 76 82 93 93 94
81 84 89 91 92 95 97 99 99 98 97 99 100 100 100 99 98 96 94 95 80 80 71 80 86 88 82 80 74 84 91 99 99 98 98 97 98 92 99 100 100 99 95
80 85 88 91 93 94 95 100 98 97 94 94 96 96 96 94 96 98 99 98 96 90 83 87 97 90 82 88 86 92 99 96 93 98 99 99 100 100 97 97 100 99 99
78 82 85 89 88 88 90 98 99 98 94 94 93 91 92 92 92 95 91 93 92 93 85 98 96 91 93 92 94 91 99 100 100 97 99 99 97 93 94 95 95 93 90
78 81 83 85 85 87 87 87 94 98 94 89 92 95 94 92 94 93 94 94 97 99 97 94 99 98 98 99 97 97 97 100 99 99 94 97 94 91 91 91 88 88 89
80 80 82 83 84 86 85 85 86 89 90 90 90 89 90 91 97 99 97 100 94 92 92 97 99 94 98 91 86 99 92 81 88 81 82 89 86 83 83 90 99 100 92
85 86 85 85 89 93 96 98 97 96 97 97 96 94 96 98 100 97 91 90 89 97 97 97 91 95 97 98 94 91 79 74 68 70 67 62 64 62 65 76 92 92 90
94 94 95 94 98 100 99 99 99 99 99 99 99 99 98 92 91 94 97 97 94 92 90 96 92 88 84 76 73 72 64 59 56 58 57 53 49 54 54 56 59 59 62
97 98 99 99 99 98 99 100 99 99 99 99 99 99 95 95 92 89 93 92 92 91 93 91 88 76 66 62 56 63 66 70 65 60 58 48 47 49 44 47 48 43 33
99 99 99 99 99 99 99 99 99 99 99 98 97 95 91 89 88 85 83 83 77 59 56 71 60 54 57 67 76 77 78 71 66 62 59 55 48 52 51 55 61 56 48
100 99 100 98 98 99 99 91 90 86 83 81 78 76 77 77 62 64 64 66 68 72 80 72 74 74 77 79 80 77 78 77 67 55 54 60 54 58 58 59 62 60 58
99 100 100 99 99 100 85 63 50 49 46 49 62 67 68 72 84 65 72 58 55 59 65 52 55 55 54 54 59 66 82 73 72 44 55 69 67 66 64 63 63 59 56
100 98 96 86 77 80 48 36 35 57 50 50 50 59 47 71 81 83 76 62 51 52 60 74 58 50 47 54 39 50 66 85 79 77 68 74 85 80 89 67 64 66 67

GFSMA_925_rhum_060.txt.gz
RH
59 58 55 55 56 58 60 63 65 66 62 65 65 66 65 65 63 59 52 50 51 56 54 42 85 86 92 92 90 87 80 78 79 74 85 83 76 86 92 93 92 90 86
66 65 56 52 52 54 59 61 64 66 68 67 67 67 67 68 68 67 64 60 58 58 59 60 49 72 86 94 99 97 92 83 78 76 81 89 76 71 86 88 87 87 84
69 68 67 65 63 55 59 63 66 68 69 70 69 69 68 68 66 68 68 68 65 65 64 61 61 58 77 88 88 94 98 93 84 82 76 73 72 67 78 85 87 84 86
71 71 70 71 70 69 68 69 70 70 70 68 63 64 64 66 64 67 66 68 69 70 69 68 65 65 64 80 89 88 92 94 95 90 92 89 86 81 81 90 88 87 82
69 73 74 74 74 73 73 73 72 71 70 72 73 73 73 66 68 67 68 69 69 67 66 72 71 70 67 70 70 88 89 90 93 98 99 94 96 96 93 92 91 86 85
73 73 74 73 70 70 75 76 77 74 73 75 73 76 76 74 76 74 73 69 67 60 64 68 70 71 71 68 65 70 86 90 92 92 93 98 96 92 94 93 90 88 87
71 74 77 73 74 78 77 78 78 75 73 74 82 78 81 81 76 74 68 60 60 59 60 61 64 64 64 64 68 76 83 96 93 94 95 94 93 99 96 96 90 88 86
76 75 77 79 80 83 81 81 84 85 81 83 89 94 94 71 58 54 64 59 60 61 61 61 64 65 67 69 71 70 71 70 72 85 99 98 92 87 89 99 96 90 85
82 83 84 84 85 88 87 82 87 93 99 94 90 86 87 89 72 62 61 63 63 64 66 66 68 69 71 73 73 74 74 72 66 81 93 95 94 91 94 83 94 93 87
81 79 76 69 70 77 85 86 77 77 91 87 90 87 77 85 91 82 65 66 62 61 60 65 70 72 75 78 81 81 70 69 72 86 96 97 93 89 90 99 98 97 91
47 44 45 50 55 60 62 59 64 76 85 86 85 75 77 69 78 91 91 73 66 63 63 66 71 75 76 78 77 74 72 71 70 70 92 95 91 91 99 98 98 98 95
52 49 49 49 53 64 72 82 84 85 86 88 82 82 78 89 97 98 98 90 81 69 70 69 70 74 77 84 82 76 75 68 75 90 95 96 94 94 100 97 100 98 99
57 63 68 66 70 77 82 86 92 89 93 91 84 86 82 86 93 90 89 91 90 81 73 77 78 76 80 79 78 75 76 79 100 100 100 98 99 100 99 91 97 87 70
65 70 71 71 77 84 84 94 92 89 84 87 87 93 88 92 89 91 91 92 97 90 70 82 85 83 80 78 81 76 76 99 94 99 100 99 93 90 81 77 98 84 96
71 67 68 78 86 88 91 98 97 92 92 96 100 100 99 100 100 99 97 93 90 88 88 88 92 92 85 84 83 82 89 98 93 93 94 96 99 98 100 100 100 98 93
72 70 76 86 88 89 91 98 96 96 97 98 98 97 96 95 95 95 95 91 90 88 91 90 98 94 89 91 90 88 98 99 90 92 94 89 98 99 99 99 99 100 100
71 74 80 81 87 87 88 94 98 96 93 91 91 91 92 93 88 93 94 93 92 92 93 100 99 95 97 95 93 94 89 94 99 95 97 90 94 90 89 92 93 94 94
74 76 79 82 84 85 86 87 92 95 94 91 92 91 92 93 91 94 94 90 92 97 95 97 100 95 99 97 89 85 78 78 81 88 88 91 92 90 85 82 84 86 86
78 80 80 82 84 85 86 86 89 92 90 89 90 90 90 92 92 97 95 96 95 91 88 94 98 91 96 99 83 84 84 78 79 73 71 71 67 72 76 85 96 99 89
81 82 82 83 85 86 88 88 90 91 90 90 90 91 93 94 96 97 92 93 94 94 92 94 84 82 92 87 86 87 68 63 59 62 49 58 55 54 57 58 72 90 93
86 86 88 90 90 93 98 99 99 98 98 98 98 97 97 98 93 96 96 94 95 89 88 90 91 83 81 75 68 63 61 59 54 62 52 44 50 47 45 52 55 56 55
92 93 94 96 96 98 98 100 98 99 99 98 97 99 96 93 91 91 90 91 90 90 90 87 82 82 65 59 63 66 69 72 72 62 59 33 48 43 47 48 46 42 36
96 97 98 99 98 99 98 99 100 98 97 99 95 93 90 89 88 86 85 86 72 60 72 71 63 59 66 69 66 68 78 76 74 58 60 36 53 53 56 58 62 62 59
98 99 100 98 97 97 99 98 96 97 97 96 94 88 76 68 61 62 65 64 67 72 63 63 68 73 70 76 78 79 76 77 70 63 56 61 55 60 53 55 62 61 55
100 99 99 97 97 98 100 87 68 64 58 51 52 65 72 76 76 59 65 52 53 58 58 48 50 48 45 45 47 52 62 82 74 58 61 60 69 69 63 65 61 60 59
99 99 100 98 98 90 75 43 41 46 48 54 55 58 62 75 82 70 68 64 52 53 57 61 59 50 41 41 41 38 66 72 85 80 74 72 76 79 77 73 65 67 69

GFSMA_925_rhum_063.txt.gz
RH
56 62 64 64 59 61 66 70 69 67 66 64 66 66 67 67 67 66 63 58 58 56 57 60 73 93 93 94 92 91 86 80 78 74 68 68 59 63 81 91 93 89 88
62 57 56 55 54 56 59 61 62 66 69 70 70 69 69 69 69 69 69 68 66 65 63 64 62 66 86 91 95 96 97 93 87 80 78 77 68 59 73 80 86 90 86
67 67 61 59 56 53 55 62 65 68 68 68 68 68 64 63 69 61 64 64 67 61 63 67 65 64 66 84 88 89 93 98 93 89 84 86 81 75 77 76 80 88 84
70 71 69 70 68 68 65 64 66 70 72 71 66 64 66 70 71 67 69 70 71 71 67 64 71 68 68 67 82 88 91 93 96 93 96 92 90 86 86 86 77 90 89
70 72 73 73 74 74 72 73 72 72 69 64 64 64 70 74 74 72 72 72 72 67 57 65 71 71 72 72 71 84 88 92 94 92 97 97 96 95 95 94 94 86 86
70 71 74 76 70 69 70 72 72 72 69 67 70 73 69 71 75 75 73 77 69 62 62 64 64 70 71 69 68 85 92 94 95 96 93 92 97 99 92 89 94 92 86
70 70 73 72 70 72 71 73 77 81 70 68 69 70 72 61 67 60 65 77 66 60 60 61 62 64 64 65 68 72 75 77 82 98 100 98 92 92 99 99 95 94 90
71 71 75 76 75 74 75 76 79 82 77 69 78 92 94 68 60 64 68 64 62 62 62 66 68 67 68 70 72 73 73 72 80 96 95 94 98 96 87 89 97 95 93
72 75 79 79 79 80 79 78 79 81 80 74 78 83 92 88 84 65 66 64 64 65 67 67 68 68 70 71 74 76 74 72 84 98 97 96 94 93 91 87 89 97 92
81 84 83 86 87 89 90 87 86 84 81 87 91 93 90 83 90 84 67 68 66 62 68 66 68 70 72 75 75 75 71 70 72 88 98 96 94 91 90 95 97 97 95
81 63 51 45 48 53 56 59 61 66 84 93 86 86 87 78 74 85 90 76 69 67 71 70 72 72 74 73 70 71 68 66 70 66 88 96 93 88 93 98 100 98 96
47 47 46 48 48 52 62 69 80 84 86 90 93 90 78 82 94 93 98 89 80 82 78 76 76 76 74 73 73 72 70 76 100 100 96 95 97 99 99 96 98 94 99
53 57 58 60 59 62 71 78 83 87 84 83 84 83 81 81 83 87 93 94 93 88 84 83 82 82 81 78 75 73 74 98 93 99 100 100 100 98 99 72 95 92 98
56 64 64 63 60 64 74 80 92 93 92 89 82 84 84 93 94 97 94 92 99 95 82 87 90 88 85 83 79 75 78 98 96 96 97 93 92 96 100 91 96 95 99
62 62 61 58 66 75 80 86 89 96 90 88 83 89 94 100 100 100 100 96 92 97 97 93 95 95 89 88 85 83 89 99 94 92 90 84 82 83 100 99 100 99 98
61 60 64 70 79 82 85 90 93 92 92 95 100 99 99 98 99 99 97 94 91 92 90 96 100 98 95 94 92 88 97 99 99 99 89 84 86 90 94 97 99 99 99
61 64 66 70 77 83 86 90 94 93 94 93 92 93 94 94 94 92 93 93 92 91 94 100 100 99 99 98 91 85 85 88 95 99 96 81 85 86 86 85 89 93 96
66 71 70 73 78 83 84 87 89 90 94 90 89 91 90 89 90 88 95 92 90 91 96 99 100 99 100 93 87 81 83 80 78 82 81 77 76 78 79 80 82 84 85
69 74 74 76 81 82 83 85 90 87 92 90 88 90 89 93 90 92 92 91 93 95 93 98 99 96 92 92 84 79 87 72 74 71 63 62 57 62 66 74 85 84 86
74 77 80 81 81 82 83 86 89 91 91 89 90 91 92 91 92 95 97 96 95 92 92 90 89 85 87 88 85 80 66 61 62 61 50 50 53 47 47 51 52 70 86
79 81 82 85 86 87 90 94 95 94 93 93 93 93 94 95 95 95 95 94 91 89 87 89 84 86 81 83 72 66 60 53 61 57 50 39 35 42 41 49 50 46 45
83 84 87 92 94 94 94 99 100 99 99 99 97 97 97 96 98 96 92 90 90 88 86 85 82 80 77 66 65 63 64 68 68 63 47 44 48 45 50 52 53 54 50
89 91 95 97 97 98 99 99 100 100 99 98 99 99 95 91 89 88 87 84 74 75 85 81 80 67 62 64 64 63 67 72 67 55 62 37 54 52 55 58 59 61 56
97 97 98 99 97 99 98 100 97 98 98 98 95 92 90 87 81 68 63 57 57 59 56 53 63 66 69 69 73 72 72 73 69 65 54 50 54 57 54 57 61 61 54
99 99 100 98 95 97 98 94 91 95 96 96 90 76 69 68 68 60 53 52 55 62 57 47 52 53 50 51 52 57 66 76 69 65 65 65 66 62 66 67 63 66 68
98 100 100 99 96 95 99 88 53 48 50 51 57 67 70 74 92 71 62 62 52 52 57 58 57 51 41 39 44 37 55 71 79 82 77 80 74 67 66 71 68 68 63

GFSMA_925_rhum_066.txt.gz
RH
64 62 64 67 61 68 69 72 70 68 68 66 66 68 69 69 69 69 69 69 66 63 62 62 63 83 90 96 98 96 91 87 81 77 75 72 60 64 82 92 93 89 90
59 59 62 64 61 59 61 64 64 67 70 72 72 71 70 70 69 69 65 67 69 67 62 64 66 66 78 88 92 94 98 95 88 87 82 80 74 63 62 73 88 90 87
66 65 58 56 55 55 58 62 64 66 70 71 71 70 70 66 62 70 72 67 66 65 67 68 64 72 74 82 86 89 91 91 99 95 86 88 85 78 77 71 79 89 86
69 69 63 62 62 60 56 58 64 68 70 72 65 62 64 67 70 75 74 75 73 63 69 69 64 72 72 71 81 85 88 92 92 96 99 92 96 87 82 83 77 90 86
70 71 71 71 72 71 72 69 68 68 64 64 64 63 65 65 66 71 74 76 80 77 66 60 73 72 71 73 73 88 90 95 95 96 92 98 99 94 83 87 95 88 89
71 71 73 74 75 72 71 70 70 67 71 71 71 69 62 60 65 62 64 69 83 77 61 66 66 65 68 69 69 78 88 97 95 97 96 91 92 100 98 92 92 96 88
68 71 72 74 76 71 69 72 71 71 70 68 71 69 68 64 62 62 62 65 75 67 63 61 62 63 64 66 67 70 71 75 97 98 95 88 96 90 90 98 98 91 94
67 69 71 74 75 70 70 71 76 79 80 71 76 87 94 75 62 65 67 74 65 63 64 64 64 62 63 64 67 70 72 73 95 99 98 97 96 96 97 86 88 99 99
72 75 75 77 78 74 75 78 78 81 81 83 84 85 92 92 86 69 67 64 63 65 68 64 63 64 68 70 71 70 69 70 71 97 98 94 91 94 91 90 87 84 97
80 74 75 78 79 79 81 83 91 91 92 85 77 79 94 95 90 90 72 73 70 71 70 70 70 72 74 75 71 66 65 63 75 92 96 94 91 88 85 96 96 97 99
89 87 86 83 78 64 52 47 50 54 62 78 90 88 85 90 92 91 92 78 76 73 76 74 77 77 77 75 67 66 65 62 96 97 94 92 90 92 97 97 93 96 99
80 76 54 43 39 40 43 48 58 70 80 86 87 93 99 89 87 91 97 89 84 85 82 81 82 81 80 76 73 70 67 67 90 99 99 98 99 100 100 100 94 92 94
64 52 42 41 46 48 54 63 70 75 79 86 80 79 82 88 88 85 89 91 95 92 87 88 87 86 83 81 76 74 72 100 88 100 100 100 98 94 96 100 98 96 91
53 53 51 54 60 54 64 68 75 78 86 92 92 92 82 78 89 92 94 94 99 99 90 94 96 92 89 84 79 77 76 91 92 89 95 90 85 99 99 99 99 99 96
46 48 50 53 51 52 58 71 78 87 83 92 93 90 83 76 78 97 100 100 92 97 98 99 100 96 93 90 85 80 82 96 92 90 90 86 84 93 100 99 99 98 94
46 52 55 58 60 67 73 77 80 90 89 88 90 89 94 100 100 100 100 99 99 93 94 98 100 100 99 94 88 84 83 88 100 98 90 82 82 92 90 92 95 98 99
59 62 55 60 67 72 76 82 86 90 89 88 87 92 97 98 99 98 96 95 92 91 95 100 99 100 99 98 89 86 85 85 88 94 100 95 84 85 84 82 86 91 93
61 62 61 66 69 74 78 82 84 88 88 92 94 94 94 91 92 91 92 92 94 90 91 99 100 100 98 91 88 84 84 83 78 83 87 79 74 74 78 85 80 78 81
66 66 68 71 75 78 79 80 81 87 91 87 91 93 93 91 91 91 89 91 90 90 96 94 100 98 94 91 83 83 85 78 75 69 59 59 58 62 66 76 79 82 85
68 71 75 77 78 80 80 82 84 85 89 88 90 90 90 91 91 90 91 92 94 95 95 97 98 93 90 90 85 79 71 64 63 62 52 47 51 44 42 51 50 59 79
75 77 78 81 82 83 83 86 91 92 91 92 93 93 94 95 93 92 95 95 95 94 95 92 90 90 87 89 84 72 63 54 52 56 49 38 34 39 37 44 45 39 35
80 82 83 85 87 89 90 91 98 100 99 98 96 96 96 97 94 98 95 92 90 89 87 85 84 83 81 80 72 65 62 59 56 64 48 44 48 46 47 50 53 55 53
86 87 88 90 91 91 93 96 100 100 100 100 100 99 98 98 96 94 96 91 88 88 90 88 85 84 79 68 64 62 61 66 61 58 60 39 53 52 55 56 56 61 55
92 92 94 95 95 95 98 100 99 99 100 98 100 99 93 90 88 83 82 70 57 55 52 59 66 62 63 63 64 61 64 64 67 64 55 50 50 54 54 57 68 62 61
98 96 93 94 97 95 98 99 91 93 98 97 97 94 93 81 65 64 59 54 57 64 58 52 60 64 62 58 56 62 68 65 65 61 63 64 62 59 66 67 68 71 69
96 94 92 99 97 96 98 99 90 92 97 97 94 73 66 66 79 81 54 51 51 54 59 56 59 58 44 49 44 35 39 62 69 76 72 74 71 65 60 70 69 68 65

GFSMA_925_rhum_069.txt.gz
RH
72 70 70 68 58 55 67 75 72 71 70 69 68 69 70 71 70 69 68 70 70 68 65 63 66 70 78 88 94 93 88 86 87 85 79 76 65 58 67 84 91 91 90
61 62 62 67 64 63 69 69 69 70 71 73 74 74 72 72 72 72 70 69 70 71 61 66 66 71 70 80 88 92 92 95 96 90 82 84 77 70 64 66 83 91 88
62 61 61 63 62 60 60 63 65 67 69 73 73 72 71 68 63 67 62 71 65 69 70 68 71 73 75 73 87 88 90 94 91 93 99 90 85 81 75 71 66 80 88
66 64 66 59 57 57 57 58 62 68 70 71 70 63 60 63 63 64 65 76 80 69 74 72 70 69 73 72 75 88 92 96 91 90 92 99 93 86 83 78 69 79 87
70 68 70 64 66 67 65 64 67 68 68 63 62 63 65 63 61 59 61 61 69 73 80 65 64 72 72 68 72 90 98 97 89 94 94 90 95 98 91 87 80 75 92
72 72 72 72 72 74 74 74 68 64 66 67 67 68 65 68 63 66 59 67 74 74 74 66 70 66 63 67 68 71 78 95 98 96 91 98 93 92 99 98 92 80 86
69 70 74 74 76 78 74 67 70 72 74 72 73 69 69 70 66 63 64 63 67 77 73 66 63 60 62 63 65 67 72 86 97 95 97 96 85 94 97 92 96 99 94
69 64 65 71 75 78 76 74 73 76 72 74 78 84 94 78 68 67 66 67 77 71 64 63 63 62 62 64 66 68 68 68 76 96 96 94 93 93 93 93 90 87 99
76 74 73 76 79 81 80 78 78 82 87 80 81 87 89 94 88 72 70 68 66 65 67 66 67 67 69 71 72 69 65 64 75 93 96 95 90 88 85 90 96 95 88
72 70 76 76 74 80 79 74 77 80 85 95 91 76 89 95 88 89 73 74 70 69 71 72 72 73 73 75 72 66 62 62 93 94 93 92 89 85 89 87 95 94 94
73 82 88 84 72 67 74 80 65 54 56 61 72 85 89 89 94 99 92 84 81 79 78 78 78 76 75 76 71 68 66 62 84 96 94 91 93 92 97 98 85 86 84
91 90 85 79 68 68 60 43 44 50 62 75 80 87 98 97 91 97 99 91 88 90 87 85 83 81 79 78 79 73 70 67 98 100 99 99 98 99 100 97 98 92 92
93 81 77 68 60 43 45 47 50 56 64 78 80 85 84 88 94 96 92 88 94 94 92 90 90 86 85 82 79 76 73 70 77 98 98 100 97 92 99 99 96 93 88
83 73 69 56 40 42 44 52 56 67 77 80 90 97 98 95 89 90 89 85 98 99 96 98 96 93 89 89 83 78 77 79 85 93 99 94 89 99 99 99 84 92 100
76 60 44 48 52 54 56 66 73 75 84 84 84 94 97 91 88 74 80 93 99 97 98 100 97 99 94 92 88 82 80 82 87 92 87 86 86 94 99 100 98 98 97
54 54 60 60 62 64 64 67 68 74 89 89 88 89 90 91 89 93 100 100 100 100 97 99 100 99 98 94 90 83 81 82 98 97 91 89 92 90 97 98 99 98 98
67 62 61 60 57 58 64 68 71 78 92 90 88 85 86 92 97 100 99 99 98 98 98 100 100 100 100 97 91 84 84 89 90 95 99 99 90 84 83 83 85 93 91
60 59 57 57 60 62 66 75 76 78 85 94 86 94 95 94 94 96 95 93 93 92 94 99 100 100 100 99 89 85 83 84 83 83 85 80 79 83 97 92 79 75 82
59 59 60 62 64 68 74 77 79 79 82 93 94 88 95 95 95 94 93 92 92 92 92 97 100 100 100 94 87 85 86 82 77 73 61 58 58 68 77 91 80 80 80
62 63 65 69 73 76 79 80 82 82 84 87 87 87 96 95 94 93 94 92 92 91 94 99 99 98 94 92 86 81 87 70 68 65 56 48 48 43 44 63 49 50 69
68 71 74 76 78 81 82 83 84 86 90 93 93 94 95 96 96 93 92 92 95 95 97 98 95 94 93 93 88 84 72 64 53 52 48 41 35 35 36 42 42 35 32
74 77 79 81 84 85 86 87 90 94 98 98 97 96 96 97 95 92 93 94 94 94 91 91 90 86 85 83 82 73 64 57 54 60 48 41 45 42 43 45 51 54 54
78 81 83 86 87 88 90 93 99 99 100 100 100 100 100 100 99 96 97 93 91 88 89 84 84 83 82 80 76 70 62 58 56 58 54 41 50 49 52 51 54 61 55
83 85 88 91 92 92 95 97 99 97 100 100 100 100 98 95 92 90 90 83 76 66 69 81 82 84 76 68 64 60 57 58 63 61 53 47 49 53 52 55 78 63 64
86 87 92 89 93 95 96 99 96 96 99 100 100 99 93 90 89 82 69 60 56 57 55 54 56 60 62 63 63 63 64 71 65 62 60 61 58 56 64 68 73 72 67
89 92 94 90 94 95 96 99 92 89 93 98 94 93 95 83 65 83 53 54 54 58 58 53 56 49 43 49 71 44 45 56 64 70 65 71 67 61 61 69 68 66 66

GFSMA_925_rhum_075.txt.gz
RH
64 59 58 61 55 53 51 60 66 69 70 72 71 70 71 72 72 72 71 69 66 68 73 70 66 72 80 73 75 84 89 88 88 78 75 82 82 72 63 58 63 86 85
75 73 74 72 68 54 54 62 76 77 76 76 75 74 74 72 70 65 64 60 61 64 72 72 71 69 83 75 72 80 91 89 88 86 92 90 85 82 77 67 59 69 66
72 74 77 73 70 66 62 75 77 74 71 72 74 73 73 67 63 64 66 65 62 63 65 70 70 72 80 78 69 81 86 85 83 84 85 94 99 87 83 78 68 62 60
70 71 71 70 67 72 70 69 68 69 69 72 72 70 66 64 67 67 67 66 65 66 64 67 68 77 80 78 73 91 90 87 76 76 92 91 92 99 93 85 80 72 67
69 68 68 69 68 67 68 67 63 64 69 72 71 66 61 64 69 68 69 68 68 68 65 69 72 71 72 74 76 86 85 89 89 90 87 88 94 90 98 99 88 82 81
83 74 70 70 70 66 63 64 63 64 70 66 68 67 62 65 66 67 66 69 70 70 73 75 76 71 72 69 66 69 80 89 96 95 94 97 98 98 97 97 98 95 94
89 86 76 70 72 71 70 72 71 72 72 72 75 66 68 66 65 67 67 63 63 68 78 80 75 76 72 64 62 62 63 72 92 95 91 87 93 90 91 95 96 98 100
78 86 78 74 73 76 76 78 80 79 78 75 71 75 68 65 70 68 65 66 65 70 83 83 80 72 68 65 64 65 60 56 86 91 92 94 86 88 86 87 90 97 92
97 100 77 75 76 78 76 77 77 76 75 79 77 75 75 72 80 77 73 69 72 76 78 77 74 71 69 69 68 67 62 58 81 90 89 89 90 85 83 86 91 97 95
97 95 99 88 87 87 94 91 76 72 73 84 88 79 75 87 80 68 78 76 72 72 72 72 73 74 73 72 70 68 66 63 79 88 88 91 93 91 82 86 89 96 96
88 84 86 99 100 100 89 83 72 66 70 77 78 72 73 92 97 90 78 78 86 77 76 78 79 79 78 78 75 72 71 66 68 93 96 96 96 95 98 96 93 92 93
86 91 91 99 100 96 90 81 74 73 77 68 54 63 76 80 88 96 90 81 85 87 82 81 81 82 82 80 78 75 74 70 72 86 94 98 96 98 100 98 90 88 87
94 85 94 100 100 99 96 89 86 82 63 64 70 73 76 91 97 97 92 80 81 87 86 84 83 83 84 82 82 82 78 77 78 93 96 99 93 98 98 100 100 99 96
89 84 96 98 93 86 93 91 78 66 63 67 71 73 80 88 98 100 98 91 86 83 92 88 90 92 90 87 85 87 85 84 82 92 100 96 92 88 99 98 87 93 98
99 100 100 90 89 91 92 84 68 62 62 65 69 77 80 76 89 99 98 100 96 82 85 97 93 93 96 95 92 90 88 88 89 89 99 90 84 86 99 99 99 90 96
100 100 100 96 99 90 76 65 61 63 65 66 76 85 86 86 89 93 99 100 100 99 92 95 99 99 100 100 99 96 92 92 90 88 95 91 85 91 99 99 84 85 91
100 100 100 97 82 72 64 60 62 63 64 71 79 87 89 91 89 88 93 97 100 100 100 100 100 100 100 100 100 100 92 90 91 90 98 94 94 98 93 85 85 95 87
84 83 81 71 68 64 61 58 61 64 66 68 72 84 92 90 86 84 94 99 99 99 99 99 99 100 100 100 100 98 90 87 89 88 88 85 87 89 100 94 86 80 86
72 72 68 64 61 61 62 63 64 67 70 70 72 78 90 96 94 89 96 97 97 97 96 99 100 100 100 100 100 97 92 88 85 82 79 76 75 81 93 88 87 80 78
66 66 65 63 63 64 65 66 69 71 72 74 76 80 84 84 90 96 98 98 96 96 97 99 100 100 99 100 100 94 92 88 82 76 68 60 54 47 74 71 54 55 76
68 67 65 66 66 68 69 72 74 74 76 78 81 84 86 88 94 100 100 99 99 98 98 99 100 100 100 100 98 88 89 82 77 72 66 56 46 41 44 46 44 39 36
68 69 69 69 69 71 74 76 76 77 81 86 91 94 94 97 98 99 100 99 98 98 99 100 100 99 97 94 92 87 83 78 70 63 54 46 40 40 41 47 68 54 49
73 74 75 76 76 78 80 83 86 87 91 93 96 96 98 98 100 100 100 100 99 98 97 95 93 91 87 85 81 83 79 68 58 50 52 51 46 49 50 52 60 64 76
78 78 78 79 80 80 83 85 88 92 97 95 96 99 100 100 100 100 95 91 88 86 85 86 87 83 81 80 82 82 77 64 55 51 48 56 49 57 54 62 83 91 89
80 78 78 80 80 81 87 98 99 98 98 94 98 99 99 99 98 97 93 88 79 64 51 50 72 86 90 85 80 70 64 69 66 63 52 52 53 58 58 79 85 89 79
80 84 83 84 83 87 89 94 99 99 95 94 97 99 99 97 93 99 88 78 66 59 60 69 78 75 69 67 62 57 50 52 63 68 54 63 60 58 74 73 79 72 71

GFSMA_925_rhum_078.txt.gz
RH
72 70 66 65 62 60 55 53 54 55 60 66 67 66 65 64 64 65 66 66 65 67 70 72 69 73 83 81 82 81 82 93 84 89 88 82 82 78 70 61 52 74 79
79 73 69 68 66 62 58 57 62 66 67 69 67 67 67 67 65 64 63 63 63 63 66 73 71 71 82 85 76 85 85 79 79 91 92 98 92 84 80 74 60 59 61
82 78 74 74 72 70 58 63 67 73 70 71 68 66 66 64 62 62 64 63 66 70 65 63 68 70 72 86 79 79 75 78 79 78 82 84 96 94 85 83 76 64 62
90 77 74 75 73 72 67 68 72 71 66 64 64 64 64 62 61 60 63 65 65 69 70 70 68 70 77 84 80 88 79 83 75 73 78 89 89 95 98 92 84 76 70
91 84 77 76 78 74 74 70 68 64 62 66 66 62 62 62 60 62 62 64 71 76 72 75 72 77 78 81 82 87 80 74 81 86 85 94 96 97 96 98 98 89 79
82 82 80 76 76 75 70 71 64 63 64 64 66 64 62 61 61 62 62 62 65 74 79 84 82 86 80 80 77 79 75 72 85 93 88 91 94 97 98 99 96 99 89
90 92 91 86 76 73 68 64 65 66 70 75 70 65 61 58 63 65 64 62 66 75 80 83 80 87 90 80 71 65 62 59 63 72 71 92 86 88 90 89 95 96 99
85 88 80 96 89 78 73 67 71 76 78 74 66 68 58 52 57 65 63 65 69 75 81 87 87 87 89 84 75 66 62 60 84 89 90 90 92 85 84 85 87 92 98
92 97 90 89 99 92 83 78 80 80 74 77 74 63 58 52 57 55 67 65 67 71 76 85 83 83 81 81 72 70 64 61 80 87 87 86 87 89 87 90 91 94 98
99 96 96 100 98 100 95 92 85 83 80 78 77 73 74 69 61 47 61 67 70 69 72 78 79 80 78 73 69 77 67 66 90 94 96 96 91 88 91 88 88 86 91
84 80 70 91 98 100 100 100 99 90 83 76 78 81 74 74 71 63 50 44 71 71 73 77 78 81 78 75 75 75 71 71 81 92 93 97 96 91 98 99 89 87 91
92 83 88 99 90 99 100 98 97 94 87 80 75 70 64 70 64 67 63 55 56 64 78 81 80 81 84 78 78 78 74 72 73 77 94 98 100 98 100 100 99 95 86
97 89 99 95 95 84 97 100 95 92 95 89 81 72 77 78 77 74 70 63 61 60 70 77 80 86 90 91 89 82 79 78 78 85 98 100 90 94 97 99 100 98 99
100 100 100 100 97 99 99 93 92 84 91 87 79 70 86 92 94 93 88 77 74 71 64 72 84 89 92 96 97 89 85 84 87 91 87 80 64 84 99 98 91 73 92
100 100 100 100 100 100 100 99 95 93 93 81 73 80 93 94 96 98 100 93 81 85 65 66 86 97 100 100 99 92 91 89 92 89 89 78 76 83 94 98 94 93 89
100 100 100 100 100 100 100 96 91 81 69 74 76 85 92 94 97 96 100 100 99 98 90 84 98 94 99 100 99 98 95 93 95 89 83 86 81 90 100 97 94 81 73
100 100 100 100 100 100 91 82 74 69 69 70 71 83 93 92 89 88 91 96 98 99 96 98 99 99 100 100 100 100 99 97 94 92 97 91 89 100 100 90 84 82 79
99 100 100 100 99 90 78 73 68 64 66 66 68 76 87 94 96 95 99 94 100 100 100 100 100 99 100 100 100 100 99 94 91 90 91 86 90 99 100 93 93 82 85
85 91 98 94 85 76 69 64 72 67 66 74 80 84 82 88 90 87 89 89 100 100 99 100 100 100 100 100 100 100 97 91 89 92 92 86 86 84 97 94 84 79 76
78 80 80 79 77 73 73 72 64 66 66 70 79 83 85 88 91 86 92 98 100 100 99 100 100 100 100 100 100 99 99 94 86 83 79 68 63 56 79 71 55 56 75
75 75 76 74 72 69 65 62 65 75 79 82 86 87 82 91 85 90 100 100 100 100 100 100 100 100 100 100 99 98 96 90 87 80 72 65 59 50 52 53 46 37 38
78 78 75 77 73 74 67 68 76 80 86 87 89 92 93 82 85 91 98 100 99 100 100 100 100 99 99 99 99 93 88 84 79 78 70 59 53 55 56 67 58 45 43
84 79 82 80 80 82 71 73 74 89 90 92 96 96 99 99 100 99 100 98 99 98 98 100 99 98 95 92 90 91 85 84 73 65 66 50 57 54 57 44 51 57 64
89 87 87 85 84 85 78 79 84 95 95 97 99 99 100 96 99 99 99 96 92 89 91 92 93 90 88 82 84 85 85 78 71 57 49 53 57 55 62 64 60 90 86
94 89 89 89 91 87 80 86 94 100 100 100 100 100 97 99 99 99 95 89 87 83 76 67 76 83 86 87 84 83 83 76 60 56 50 54 62 62 68 82 92 93 79
99 100 88 89 85 86 83 91 99 98 99 97 99 100 99 96 99 98 94 89 81 72 72 80 85 78 82 84 81 78 83 85 64 62 63 66 67 63 70 81 91 80 87

GFSMA_925_rhum_081.txt.gz
RH
70 64 62 61 61 57 52 53 48 44 46 48 51 52 56 56 55 56 58 64 61 64 68 69 71 76 85 80 78 80 82 90 90 89 96 90 83 81 75 69 58 61 59
65 60 57 57 57 55 52 48 46 48 48 54 57 58 58 58 57 55 56 59 62 60 60 65 68 67 71 80 82 76 81 82 81 79 79 94 94 90 83 78 69 64 57
68 64 62 63 63 59 52 50 49 53 56 55 56 57 57 55 55 55 54 56 57 63 67 65 63 66 72 76 80 81 77 72 72 72 79 83 89 96 93 86 81 73 65
74 72 71 69 65 62 60 50 54 58 60 58 58 56 56 56 54 51 52 55 56 59 63 68 71 66 69 80 83 83 74 66 62 67 74 79 89 92 99 99 90 82 80
86 77 66 66 67 67 64 59 60 60 59 57 57 54 53 54 53 51 54 54 56 64 67 69 74 73 73 81 82 91 73 67 68 67 75 81 96 97 98 96 97 95 83
87 81 76 73 72 73 68 66 61 60 57 55 57 58 61 60 58 53 54 54 53 61 67 72 77 82 85 81 86 91 84 78 68 64 78 81 88 92 94 95 98 97 98
77 79 80 81 81 76 70 66 62 58 59 61 64 65 68 60 55 56 58 52 50 63 70 76 74 81 88 90 84 76 70 70 62 65 67 76 90 88 85 89 89 94 95
88 86 86 95 93 79 79 75 61 61 60 64 70 62 66 55 55 59 55 55 54 64 72 78 80 79 88 86 80 65 63 65 76 88 88 88 89 89 84 83 84 90 94
92 94 88 93 94 87 79 79 90 67 72 74 71 66 62 61 50 53 63 55 57 60 68 79 81 82 82 80 76 67 64 63 66 86 87 88 93 92 90 87 85 86 91
93 95 98 95 88 95 99 91 87 100 81 79 79 70 67 67 59 53 57 59 60 60 64 75 77 79 80 80 79 76 71 66 78 96 97 97 94 91 90 89 94 91 90
91 83 76 92 99 91 94 100 100 99 100 94 89 89 79 79 72 66 58 49 67 64 61 64 71 75 80 82 82 74 70 68 74 90 92 96 96 94 90 98 99 93 85
89 86 66 64 99 76 79 82 86 100 97 95 92 89 78 71 71 69 74 59 52 52 65 71 75 75 78 85 86 78 77 76 76 77 93 99 99 95 94 98 94 99 99
89 78 79 99 97 81 68 73 98 100 99 94 92 91 89 78 76 72 69 64 61 56 63 73 75 78 82 86 91 86 81 79 78 80 96 99 90 66 75 93 99 100 100
98 99 90 97 90 82 80 94 100 100 99 96 96 92 86 82 84 78 75 72 74 65 62 59 74 79 84 90 93 94 91 86 86 91 94 87 78 68 74 96 98 100 75
97 100 100 100 100 100 100 100 100 99 99 97 96 92 84 86 89 88 91 89 81 80 72 60 81 83 90 92 94 95 94 92 94 93 90 84 76 74 80 100 99 87 74
99 99 100 100 100 100 100 100 100 100 96 96 93 82 89 85 89 92 91 92 91 88 86 82 93 89 93 100 100 99 96 94 97 95 92 86 81 81 90 100 100 99 80
99 100 100 100 100 100 100 100 100 96 95 91 87 87 87 83 87 90 92 92 90 90 96 95 96 94 98 100 100 100 100 98 97 98 94 90 88 99 100 100 98 89 80
91 99 100 100 100 100 100 99 94 87 80 83 81 82 82 89 91 89 89 91 90 92 93 89 99 99 99 100 100 100 100 99 98 96 94 87 85 96 99 97 98 85 82
77 89 99 100 100 100 95 89 82 75 73 74 75 78 79 86 88 89 90 88 87 89 96 100 100 100 100 100 100 100 100 98 94 94 93 89 86 84 90 89 81 76 77
74 78 85 95 99 94 86 78 75 72 71 71 72 75 78 81 85 86 85 86 86 92 100 100 100 100 99 99 100 99 100 98 92 93 92 82 74 65 74 66 50 50 66
74 75 76 77 79 81 81 72 71 70 71 71 72 77 79 82 82 83 85 86 89 93 100 100 100 100 100 100 99 99 100 97 95 88 82 69 66 60 60 55 50 41 34
76 76 76 74 75 76 74 73 74 76 76 76 78 84 85 83 79 79 81 93 100 99 100 100 100 99 99 98 98 99 98 92 89 81 79 71 65 60 56 52 58 48 41
80 79 79 78 76 78 74 68 69 77 80 81 82 85 90 96 99 99 99 99 97 97 99 99 99 98 96 94 95 98 93 88 82 72 74 65 58 54 56 50 47 50 61
84 84 84 83 80 78 78 74 72 75 86 89 92 94 94 98 100 99 99 98 96 94 94 95 97 95 95 89 92 89 88 84 69 66 57 55 54 54 57 55 52 80 80
94 91 90 85 84 83 83 81 80 82 93 95 98 98 94 96 99 99 98 97 92 86 84 84 84 85 87 87 86 87 86 80 70 64 53 53 55 60 62 79 92 92 77
99 97 98 96 91 89 91 86 89 96 97 99 98 96 96 99 94 99 99 94 87 81 76 72 52 65 84 89 92 85 86 83 66 61 59 55 61 61 69 80 88 86 83

GFSMA_925_rhum_087.txt.gz
RH
86 91 86 77 66 57 50 48 44 40 43 46 47 46 46 52 56 57 58 59 58 60 60 61 62 71 78 90 83 80 79 78 71 71 69 79 92 90 86 81 74 68 60
83 85 82 73 55 54 60 60 55 55 49 47 46 48 49 54 57 57 51 56 56 61 62 58 60 62 65 74 83 80 82 74 65 63 63 72 88 92 94 91 84 77 70
74 78 70 65 66 63 59 60 56 53 48 46 47 53 58 59 59 57 54 55 57 58 63 65 66 68 65 70 91 81 78 69 60 58 62 59 71 83 90 97 93 87 80
70 67 65 65 66 60 56 53 51 49 48 52 54 57 58 57 56 58 56 52 51 57 64 68 70 72 72 72 78 98 81 71 57 59 56 58 65 85 86 90 94 94 90
67 64 62 61 58 56 55 54 53 50 52 59 60 60 59 59 55 55 54 52 51 61 67 70 71 72 74 75 90 98 85 69 60 59 60 57 63 70 91 96 98 99 99
64 63 60 62 65 66 65 63 57 53 56 59 60 60 59 60 58 52 54 53 55 57 59 62 68 73 71 75 93 98 96 71 60 57 57 61 66 77 91 87 90 92 95
71 71 74 72 74 70 66 65 65 60 62 64 64 62 63 63 55 52 51 58 56 54 53 57 70 79 78 82 91 99 99 80 62 62 65 67 82 89 89 87 86 85 90
81 83 78 70 76 77 73 71 70 70 68 64 64 73 83 70 62 57 60 58 56 54 56 56 77 84 77 77 91 94 90 86 82 78 74 77 78 87 90 89 86 82 87
70 66 74 74 76 80 82 83 82 79 78 73 69 70 90 89 79 67 66 56 55 56 58 66 80 85 84 84 87 88 79 73 72 86 87 94 89 89 91 87 89 88 84
83 84 74 70 72 72 71 71 73 77 82 79 81 82 84 91 94 91 71 63 57 56 60 73 72 83 87 87 86 84 73 67 68 91 95 97 95 88 92 91 88 98 97
78 81 78 80 77 72 79 81 83 80 74 71 82 89 88 98 99 97 93 77 64 61 64 71 70 74 78 81 82 80 78 76 73 94 95 95 95 99 93 94 91 94 99
88 77 82 88 93 98 100 96 95 95 98 95 90 87 88 94 98 97 98 94 86 76 74 72 74 74 74 75 77 79 81 77 76 86 90 97 99 90 80 95 94 91 96
86 72 78 80 85 89 90 95 100 98 99 99 97 88 94 88 86 94 91 98 98 89 78 71 69 71 76 77 78 81 82 82 80 82 92 99 99 91 78 82 98 98 97
85 78 81 83 81 84 92 85 94 100 93 99 100 94 95 95 94 96 95 95 98 82 72 69 75 79 79 79 82 84 84 86 86 89 100 98 93 87 78 71 78 100 97
100 100 96 85 86 94 94 97 99 93 96 100 100 100 99 98 96 97 99 90 84 89 83 78 82 89 86 85 83 80 85 89 91 93 96 93 91 86 83 81 80 92 98
94 96 98 100 100 100 100 100 100 99 99 100 99 100 100 100 100 99 96 87 86 75 84 86 91 90 90 90 89 89 93 94 93 95 98 96 92 87 84 80 79 92 100
63 69 78 84 91 98 94 99 100 100 100 100 100 100 100 100 97 90 88 93 91 87 94 96 94 96 94 95 95 99 97 94 92 98 100 97 93 90 87 89 83 99 98
68 68 73 78 91 95 99 99 100 100 100 100 100 100 100 99 92 89 91 89 88 89 91 96 95 97 99 100 99 99 99 94 99 99 100 100 94 95 96 88 84 80 79
67 69 71 76 83 95 100 100 100 100 100 100 100 100 98 96 93 89 86 84 88 89 91 88 94 96 98 98 100 100 99 100 99 100 100 98 92 88 92 89 83 68 66
73 71 72 75 80 80 96 100 100 100 100 100 100 98 92 88 81 80 83 87 91 96 94 92 95 96 96 98 100 99 97 99 99 99 100 96 92 88 85 77 67 51 41
82 80 78 76 76 81 80 97 100 99 98 97 94 89 82 79 80 80 83 83 88 91 96 98 100 100 100 100 98 99 100 100 100 96 98 97 93 88 77 78 68 58 43
87 88 86 83 81 78 78 77 89 92 90 88 85 82 78 80 79 80 85 87 87 90 92 92 99 99 98 93 94 99 100 100 99 98 94 92 90 73 68 65 62 58 44
96 98 94 90 90 86 81 79 77 80 82 84 82 81 78 76 75 75 78 84 87 90 86 84 91 98 96 91 90 100 100 98 94 85 96 86 82 69 65 60 56 48 45
92 95 97 96 91 91 91 87 82 79 79 79 78 76 76 76 79 75 79 82 85 92 89 88 91 90 93 89 87 86 91 97 96 83 88 74 70 64 59 57 48 53 72
77 84 92 91 90 87 88 89 90 86 81 80 83 81 80 81 80 86 91 91 91 99 98 92 92 92 91 93 92 96 98 97 78 71 78 62 61 58 57 55 50 95 86
69 79 83 84 78 84 90 96 97 99 90 87 85 86 85 88 89 92 93 100 100 98 96 94 92 91 89 89 90 90 91 92 76 77 70 64 55 54 62 71 81 95 84

GFSMA_925_rhum_090.txt.gz
RH
95 92 88 87 93 86 65 54 50 43 38 45 45 44 44 48 52 51 52 57 61 60 61 65 68 69 76 89 96 84 81 79 75 71 76 74 88 90 88 86 81 73 64
99 96 95 92 93 87 61 48 43 42 38 45 46 46 46 47 56 57 57 56 54 59 61 62 62 63 68 65 92 83 83 79 68 68 64 62 72 84 90 92 88 83 76
97 90 87 92 79 76 52 49 50 54 48 49 48 48 48 51 54 58 60 57 56 56 60 64 65 67 70 66 91 78 81 76 66 61 61 60 60 70 89 89 93 92 87
86 91 87 83 68 56 52 62 63 61 58 51 48 48 53 58 59 60 60 58 53 51 53 64 68 71 73 73 88 96 90 77 64 60 58 55 56 62 76 82 88 94 97
88 82 87 77 59 64 62 63 61 59 53 51 52 53 56 59 60 59 60 57 55 50 56 64 70 73 74 75 83 95 99 78 63 59 60 60 63 64 70 81 93 93 95
81 77 80 66 65 69 65 60 55 53 52 53 62 63 61 61 60 60 59 53 54 53 58 64 68 70 70 66 75 97 99 85 64 61 59 65 64 66 81 88 87 88 90
77 74 68 66 66 62 57 56 55 55 57 58 62 65 64 62 62 60 58 55 56 59 57 57 56 60 68 70 84 92 99 98 71 62 66 66 70 74 86 90 88 82 81
67 70 64 62 61 60 62 64 64 61 59 62 68 73 83 73 66 63 60 59 57 57 57 57 54 57 75 76 88 97 99 98 88 76 72 67 76 78 87 89 87 90 95
65 67 64 67 74 75 73 69 66 68 71 70 66 70 95 91 81 73 70 65 61 60 60 55 54 69 83 82 91 99 97 90 86 88 89 88 88 83 94 91 89 86 96
75 71 69 81 77 78 76 75 78 78 78 84 85 75 71 73 88 84 75 71 68 73 72 63 63 73 84 86 88 90 89 82 72 89 88 95 96 94 96 94 91 93 96
93 86 85 83 79 78 76 81 80 88 86 75 82 85 98 95 89 94 95 90 76 72 76 80 75 75 75 80 83 84 83 75 70 88 95 93 95 95 85 97 94 95 88
94 92 87 84 89 87 88 84 81 77 75 86 88 90 94 94 99 97 97 93 84 83 73 75 81 81 80 77 75 79 81 80 78 77 92 89 98 95 87 90 95 93 96
94 94 90 91 86 88 88 86 83 85 85 97 98 100 99 92 84 92 86 91 97 97 92 85 82 81 88 79 75 78 81 82 81 78 93 92 97 98 89 81 96 99 97
95 97 90 89 88 86 85 86 85 91 99 100 100 98 98 100 99 90 90 88 99 99 93 91 90 84 83 80 79 81 81 81 82 84 95 97 98 97 87 81 78 94 99
100 100 100 100 100 87 89 99 89 90 99 100 97 100 98 99 100 100 96 91 95 99 97 90 88 88 86 86 85 84 83 84 86 87 98 98 100 94 89 87 86 87 87
83 88 89 94 99 100 100 100 98 95 95 92 91 99 100 100 99 99 98 95 93 79 87 89 88 93 92 88 88 88 88 88 91 90 88 91 93 92 90 87 81 76 82
67 68 77 80 89 98 99 100 98 99 99 100 99 100 100 100 100 100 100 100 98 86 86 94 90 92 94 92 91 91 90 91 90 90 88 87 94 93 91 90 84 77 76
67 71 70 75 81 83 96 95 96 98 99 100 98 100 100 100 100 99 100 99 93 91 87 96 98 100 100 100 98 98 96 95 91 90 91 99 98 96 99 96 86 74 71
72 67 70 74 77 84 86 98 99 100 100 100 100 100 99 100 100 100 95 91 94 91 90 88 100 100 100 100 100 100 100 99 98 97 100 100 99 93 96 94 87 75 62
78 80 80 79 78 77 82 86 99 99 100 100 100 100 100 100 100 99 98 93 92 93 95 97 98 100 100 100 100 98 97 99 95 96 99 100 99 92 89 90 79 67 55
88 90 88 85 82 81 80 82 84 94 99 99 100 100 100 100 100 99 94 89 89 95 100 100 100 100 100 100 99 94 99 98 99 99 100 100 98 93 89 90 83 73 60
61 83 98 96 90 90 89 84 82 83 89 94 92 95 96 96 95 92 90 89 88 93 100 100 100 99 100 92 89 91 98 100 99 98 99 98 99 94 90 77 70 66 60
58 63 76 87 91 88 89 90 89 87 84 83 88 90 88 86 86 85 85 86 84 89 88 86 98 97 90 83 86 97 100 98 96 90 99 94 94 92 78 68 66 60 48
54 67 71 74 76 80 80 84 87 90 90 86 83 83 85 85 82 83 84 90 91 90 92 95 90 85 83 81 86 84 85 94 98 94 89 89 84 80 70 63 59 51 53
48 54 66 80 82 70 76 82 94 94 90 94 87 82 85 84 82 83 84 86 88 89 93 96 92 88 88 93 90 94 97 100 89 87 90 74 70 68 64 60 54 52 83
49 52 53 66 64 58 77 94 98 100 100 99 94 89 85 87 84 86 86 86 96 90 98 100 100 97 94 92 90 88 86 99 84 80 82 79 63 63 61 60 57 78 92

GFSMA_925_rhum_096.txt.gz
RH
62 70 75 88 83 79 82 89 90 85 84 57 49 42 46 56 55 52 51 55 57 62 71 74 75 77 79 85 95 90 88 82 80 68 62 56 76 82 85 86 86 85 83
65 69 78 84 85 81 83 85 87 90 84 58 47 40 38 43 45 46 47 51 57 60 64 69 69 70 80 93 96 93 91 87 85 70 60 56 57 61 74 85 90 92 91
77 94 82 88 88 91 84 89 88 89 77 59 54 44 40 41 46 48 52 51 53 57 61 64 66 66 67 72 87 91 84 87 87 71 58 55 53 55 56 62 70 77 90
74 87 100 99 86 95 100 90 88 90 79 63 55 46 48 48 48 48 50 57 60 59 58 61 64 67 68 70 74 90 91 90 87 71 58 56 58 60 63 65 68 84 91
80 91 98 100 98 95 92 88 88 93 85 74 55 48 47 49 49 49 52 54 57 62 63 59 61 63 67 69 73 87 95 94 87 71 59 60 62 64 69 75 86 89 88
83 97 97 95 100 99 89 86 92 88 84 78 65 52 51 54 51 52 55 60 63 64 64 63 59 61 67 68 72 72 97 94 87 74 63 62 62 64 68 82 86 84 90
87 100 99 99 100 99 92 81 96 97 86 78 75 69 62 56 54 53 56 63 64 63 63 63 60 60 63 70 66 64 94 99 90 82 66 64 64 68 84 82 80 97 96
87 100 98 98 94 79 79 73 74 93 83 75 74 80 87 75 69 67 66 65 63 62 63 61 60 62 68 65 52 57 87 98 89 87 69 67 67 73 81 87 89 98 96
87 90 100 100 100 96 93 94 92 84 72 73 72 70 94 92 83 73 68 66 64 64 61 61 65 69 69 62 57 59 86 92 94 93 93 86 86 84 89 89 93 97 95
91 86 96 97 100 98 87 75 90 81 77 80 79 69 74 75 88 87 79 76 71 67 62 62 67 69 65 59 59 62 72 84 84 93 94 94 94 97 97 92 94 95 96
100 97 98 97 96 98 100 93 85 71 80 77 71 72 81 86 87 86 85 83 78 70 71 64 66 71 68 63 76 78 67 81 91 96 93 89 92 99 96 79 88 95 90
100 100 100 100 100 100 100 99 95 71 75 76 80 79 73 84 94 99 99 92 88 69 71 72 75 74 70 72 80 78 88 87 90 89 91 91 97 98 98 83 94 92 87
100 100 99 100 97 98 96 93 92 80 76 80 93 97 82 98 94 90 93 92 95 82 78 75 74 78 77 81 83 89 90 87 84 85 93 92 93 99 95 90 84 83 96
100 100 95 100 94 95 94 95 87 88 83 90 95 96 99 98 94 95 97 94 93 97 96 83 76 81 87 93 90 97 91 87 83 90 96 94 89 91 88 85 87 85 86
100 98 100 100 98 99 89 93 94 93 91 97 99 99 99 100 99 100 100 100 98 97 97 99 94 97 100 100 99 98 98 91 92 82 83 84 91 89 89 86 78 84 86
86 86 87 93 99 98 100 100 100 100 100 100 100 99 99 99 98 100 100 100 100 99 98 97 99 97 100 100 100 100 97 94 90 81 79 85 91 91 92 85 84 90 87
71 71 75 76 81 86 89 92 100 100 100 100 100 100 100 100 100 100 100 100 100 100 98 100 99 99 100 100 100 100 98 93 90 85 84 85 89 85 86 85 91 91 87
78 76 72 71 75 77 79 83 86 95 100 100 100 99 100 100 99 100 100 100 100 100 100 99 99 100 100 100 100 100 97 92 91 92 91 90 86 85 86 85 93 93 88
44 52 72 81 83 83 84 83 86 88 94 100 100 99 100 100 100 100 99 100 100 100 100 98 100 99 99 100 100 100 100 98 96 98 93 90 89 86 84 93 97 97 90
36 41 44 46 56 79 88 96 94 91 87 85 88 97 100 100 100 100 100 100 100 100 100 100 100 99 100 100 100 100 100 100 100 100 97 94 100 96 85 93 100 95 86
37 36 35 38 47 54 66 93 96 95 91 91 89 86 87 96 100 100 100 100 100 100 100 100 100 100 99 99 100 99 100 99 100 100 98 98 98 99 90 91 98 91 81
38 38 37 40 42 45 53 54 80 91 90 92 90 89 90 86 87 95 100 100 100 100 100 99 99 98 100 99 99 99 100 100 99 99 100 97 96 98 91 93 90 91 88
38 36 35 38 39 36 42 52 71 74 82 100 100 96 87 86 89 86 91 96 100 100 100 98 99 98 100 96 98 100 100 99 99 87 99 99 100 100 97 96 94 89 85
47 46 44 44 46 43 56 78 78 62 68 84 91 98 98 93 85 90 88 93 98 100 100 100 98 91 89 87 87 82 87 98 98 92 98 99 97 98 98 99 97 86 77
51 48 46 43 46 42 50 51 78 82 78 82 88 81 90 98 97 97 96 97 96 100 99 100 100 100 99 97 94 93 100 100 100 99 98 92 91 92 93 94 88 75 74
52 48 44 41 41 43 45 48 72 78 87 86 80 82 91 82 87 98 100 100 100 96 97 100 100 100 100 100 100 99 93 100 97 98 94 92 83 81 78 78 78 67 76

GFSMA_925_rhum_099.txt.gz
RH
69 74 79 81 78 81 77 77 82 90 90 88 80 63 63 63 62 60 56 58 58 59 82 84 80 74 73 79 89 90 90 85 78 74 60 54 67 71 77 86 85 87 83
65 71 84 86 91 83 78 75 73 85 84 83 87 69 56 51 58 58 55 51 55 58 64 72 79 75 74 78 96 96 89 90 85 81 62 54 50 52 62 71 84 90 91
57 72 80 90 89 95 94 83 80 86 89 89 90 66 53 46 43 53 48 47 49 57 60 64 69 75 72 70 87 96 85 87 90 83 63 54 51 53 54 57 58 65 75
72 94 96 100 99 94 99 95 93 93 96 87 89 71 59 49 46 44 46 49 52 51 55 59 62 67 68 69 77 86 91 85 91 83 64 55 55 56 57 61 63 65 71
79 96 96 96 100 100 100 100 100 99 87 92 88 77 72 60 51 54 50 49 51 56 58 59 58 60 65 69 74 88 91 91 93 82 66 57 58 57 62 63 66 70 84
85 98 97 96 97 97 99 100 100 99 97 96 78 67 66 66 51 51 53 51 50 53 57 60 63 61 61 67 72 77 89 99 97 82 68 59 60 58 60 66 74 78 91
73 98 99 99 97 99 96 100 100 97 97 85 91 85 80 67 63 52 57 54 52 56 60 64 65 65 61 63 70 71 72 93 96 81 73 62 63 62 66 73 75 92 93
92 100 99 98 98 100 98 100 100 97 88 92 85 76 74 60 67 63 59 56 54 57 64 64 64 65 62 60 69 74 62 84 100 87 77 65 65 67 83 75 83 93 96
86 99 97 97 100 100 99 98 98 92 93 96 88 76 89 77 70 60 62 57 62 65 65 64 64 64 64 61 66 72 56 74 99 99 88 88 73 86 92 91 91 96 98
96 95 99 97 95 100 100 100 99 96 88 88 97 83 66 76 85 80 78 73 70 69 67 65 64 65 66 65 68 69 54 59 92 100 96 96 94 95 94 94 91 96 94
99 96 100 100 98 100 92 100 99 99 96 89 87 83 89 81 81 88 83 83 80 76 74 70 72 72 73 72 72 68 61 68 90 97 93 95 94 96 96 96 90 91 92
99 100 100 100 100 99 88 95 96 92 94 98 90 81 75 75 77 88 93 90 90 72 68 71 73 72 74 79 76 70 70 76 88 97 89 91 92 93 97 99 94 88 91
99 100 100 100 100 100 99 100 100 100 96 88 82 90 86 81 70 85 84 79 96 87 82 75 68 67 71 73 75 75 79 92 91 89 94 95 90 88 100 96 89 88 97
100 98 100 100 100 100 98 100 98 97 86 90 88 86 91 86 83 87 88 98 96 97 89 81 73 77 78 77 80 83 92 100 98 94 95 93 94 98 93 89 90 86 85
93 96 98 99 100 99 100 100 100 99 96 88 88 86 87 87 87 89 93 100 98 96 88 88 88 84 81 84 85 92 100 100 96 91 86 89 94 94 93 91 85 81 81
77 84 84 84 87 92 96 93 98 99 100 99 96 96 98 98 92 96 100 94 100 98 95 89 90 87 88 97 98 100 100 100 95 90 89 90 94 93 94 86 86 81 80
68 70 74 76 79 82 85 88 90 88 91 98 100 100 100 100 100 100 100 100 100 100 98 99 96 96 94 99 100 100 100 100 96 92 88 92 89 94 93 93 88 86 87
34 38 48 65 77 79 81 83 88 90 92 93 99 99 98 99 99 99 100 100 100 100 100 100 97 99 99 100 98 100 100 100 99 99 97 94 93 94 92 86 85 85 90
32 31 32 36 42 63 82 88 94 90 88 85 86 94 99 100 99 99 99 100 100 100 100 100 100 100 100 100 100 100 100 100 100 100 99 95 93 91 87 86 85 90 94
32 31 33 35 35 35 36 35 40 52 63 75 86 88 89 98 99 99 100 100 100 100 100 100 100 100 100 100 100 100 100 100 100 100 100 100 99 95 94 99 92 90 96
31 31 28 26 29 31 54 79 66 52 44 43 59 75 84 87 89 89 98 99 100 100 100 100 100 100 100 100 99 98 100 100 100 100 99 100 99 99 100 100 98 87 94
37 36 35 35 34 35 35 80 81 74 76 86 83 96 77 64 80 84 88 88 98 100 100 99 99 97 99 98 100 100 99 100 99 100 100 100 100 100 99 100 95 90 89
43 41 40 40 38 37 51 78 79 76 62 57 85 89 88 93 94 87 80 86 88 89 100 100 98 99 99 98 100 100 100 97 96 98 100 100 100 100 99 96 96 94 92
50 49 44 40 37 30 34 67 74 75 71 68 68 70 92 90 87 98 100 98 91 90 88 99 100 100 96 95 95 95 100 100 100 97 96 99 100 100 95 97 96 95 93
55 54 50 44 42 33 32 35 66 70 70 76 83 86 81 85 94 82 86 97 100 94 88 91 100 100 100 99 96 100 100 100 100 99 100 95 99 100 100 99 99 99 93
54 53 48 44 41 38 32 37 71 77 80 85 88 84 80 74 73 87 92 99 94 97 99 92 93 100 100 100 100 97 97 98 99 100 99 95 94 91 89 91 95 92 90

GFSMA_925_rhum_102.txt.gz
RH
81 89 92 73 76 78 77 81 71 67 72 76 66 60 62 60 58 58 62 65 62 60 77 94 94 85 75 82 95 94 92 88 81 77 63 53 61 67 72 90 86 87 86
82 81 69 82 81 73 75 78 76 68 71 69 72 69 58 56 56 55 56 56 58 59 59 73 92 94 95 95 95 95 88 89 89 82 71 54 51 52 60 70 82 84 84
71 75 79 85 91 89 77 78 82 82 88 86 84 77 75 62 51 48 52 54 53 53 56 60 71 79 82 85 92 96 90 84 92 94 78 58 51 52 54 56 59 59 64
67 71 74 76 80 86 92 94 91 97 100 96 92 84 75 62 50 45 43 49 50 52 54 57 60 66 74 83 88 93 94 87 88 93 80 61 52 54 52 55 60 62 63
72 73 75 76 78 93 95 93 94 99 99 100 99 94 86 72 54 48 45 45 49 55 58 58 56 60 62 68 74 82 93 90 87 91 81 65 54 55 52 57 62 64 66
76 80 77 78 78 81 89 95 98 97 96 99 100 100 90 78 66 60 52 51 50 54 58 64 64 58 58 59 63 73 83 93 90 94 83 71 57 56 54 57 67 69 87
77 79 82 83 86 82 77 81 84 93 98 98 99 97 94 88 75 66 55 52 56 55 58 63 68 70 68 62 60 62 72 91 91 99 96 77 62 60 59 73 81 92 90
87 85 85 87 84 89 82 82 88 93 97 96 91 81 77 67 73 65 65 66 61 57 61 64 67 71 71 65 64 61 66 82 86 99 100 93 86 69 77 90 88 97 97
96 92 94 96 97 92 92 86 90 95 94 97 94 78 86 69 48 48 59 52 56 65 64 64 70 68 72 72 72 63 61 71 76 90 99 100 92 91 91 92 90 94 98
88 89 92 95 95 98 99 96 98 97 96 95 95 90 71 62 65 73 75 69 69 68 64 68 68 67 73 74 80 79 71 65 71 76 98 99 96 94 92 91 91 94 96
100 100 97 97 98 99 100 99 100 100 100 97 98 93 83 88 85 85 75 79 82 74 76 77 77 80 76 84 84 84 80 77 72 64 95 98 95 94 94 94 92 91 96
100 100 98 97 99 97 99 99 93 100 100 100 100 94 92 83 87 86 91 84 84 69 82 88 87 83 78 79 79 79 83 84 73 63 92 94 97 92 93 94 94 92 93
100 99 100 99 100 100 100 100 100 100 98 97 99 99 99 94 91 91 90 84 85 74 79 74 76 74 80 79 79 77 82 84 74 70 86 96 96 94 94 99 98 94 94
100 100 96 98 99 100 100 100 93 100 100 100 100 98 96 93 89 92 94 92 93 90 82 86 74 82 80 80 80 73 75 75 78 72 82 96 93 94 93 98 99 98 95
82 93 93 91 93 98 99 100 100 100 100 98 100 95 92 90 90 85 90 94 92 92 82 76 92 81 82 83 85 82 81 85 84 82 91 96 96 96 94 96 97 96 88
73 80 84 83 80 83 89 93 98 98 96 98 100 100 96 99 98 92 95 98 97 96 96 81 79 84 87 93 96 96 92 97 90 95 100 98 92 93 98 99 96 92 86
48 52 57 70 83 84 88 89 90 89 91 94 97 97 100 100 100 100 99 99 100 100 96 86 91 95 98 99 95 93 98 100 100 100 100 94 86 88 95 99 97 91 88
44 44 45 47 51 62 68 75 80 86 89 91 92 89 93 95 98 99 99 99 100 100 100 98 98 97 95 96 99 100 99 99 100 100 100 91 90 95 100 100 95 92 88
42 42 43 45 45 48 50 48 48 52 55 64 77 86 89 90 94 99 98 99 100 99 100 100 99 98 99 100 100 100 100 100 100 100 100 98 96 97 97 97 94 87 84
41 41 40 44 49 49 55 62 61 57 56 58 60 73 76 86 89 92 95 99 100 100 100 100 100 100 100 100 100 100 100 100 100 100 100 100 100 100 99 93 86 83 82
45 44 43 42 42 41 45 68 65 60 62 59 58 61 72 84 88 99 99 94 96 100 100 99 100 100 100 100 100 98 100 100 100 100 99 100 100 100 97 94 90 80 86
46 47 46 46 45 42 40 67 74 60 60 58 56 60 64 71 71 84 95 99 100 99 100 100 98 96 98 99 100 100 100 99 99 99 100 100 99 100 100 96 98 90 88
46 48 46 44 42 40 51 61 72 58 56 56 61 63 61 60 76 72 73 84 93 98 100 98 100 99 100 98 98 100 100 95 89 91 100 100 100 100 100 100 99 99 96
50 51 50 49 49 46 54 61 64 56 54 57 60 62 62 59 57 76 76 72 76 86 94 99 100 100 90 97 99 96 97 97 97 96 100 98 100 100 100 100 100 100 95
57 58 58 56 56 53 54 60 62 56 57 56 51 55 63 65 60 70 68 72 67 68 81 82 96 99 100 95 99 100 100 100 98 100 100 97 100 100 100 100 99 98 97
58 59 58 58 58 60 55 56 64 58 53 51 52 54 60 68 72 79 74 64 63 64 67 77 91 79 99 99 98 100 100 97 94 100 99 90 100 96 98 99 100 99 100

GFSMA_925_rhum_105.txt.gz
RH
80 79 78 78 74 75 79 74 78 76 78 75 61 50 54 54 54 54 55 60 62 56 56 95 96 96 95 96 96 94 88 86 85 80 76 62 56 64 69 80 83 82 88
75 79 81 78 64 77 76 71 73 72 67 71 69 59 53 53 52 51 51 55 58 58 56 58 92 95 94 93 94 95 88 89 93 92 84 71 54 53 55 56 72 80 78
67 69 72 74 72 72 73 74 71 68 70 70 69 67 62 59 50 50 49 51 54 54 54 56 60 76 95 88 91 95 91 87 86 91 96 82 59 50 50 53 53 55 57
68 65 64 65 66 70 70 72 77 83 81 86 78 77 73 69 62 54 46 44 49 52 52 52 55 60 68 86 78 91 89 91 84 84 92 89 67 52 51 53 57 59 60
67 63 61 61 64 68 76 86 88 90 92 93 92 91 87 82 72 55 45 42 42 46 48 53 54 55 59 63 73 88 90 92 89 83 89 90 76 55 54 55 61 61 65
64 64 65 65 65 66 70 84 86 90 92 95 97 96 97 96 84 67 53 46 43 44 48 53 58 58 56 58 61 64 82 84 87 89 89 95 84 62 59 60 66 65 67
70 68 68 68 68 68 69 71 75 84 87 98 99 96 98 97 94 79 68 59 50 49 50 54 56 62 66 65 59 58 59 69 80 87 93 98 99 84 68 81 83 79 80
79 78 77 76 75 74 73 75 75 76 80 83 88 83 89 91 94 88 79 66 61 56 54 56 57 60 62 68 66 61 61 60 79 89 95 96 99 97 90 89 90 90 97
84 87 89 83 84 82 83 83 82 81 82 82 90 83 94 86 67 72 77 71 63 62 58 56 51 58 60 68 70 58 61 65 64 68 96 99 96 99 94 90 91 91 96
94 92 92 95 89 90 93 91 87 88 88 89 90 97 89 81 84 76 63 65 62 61 59 60 62 63 63 70 75 68 68 67 68 65 70 96 99 99 98 92 91 90 94
99 99 99 99 98 94 92 93 95 96 97 96 91 91 98 92 94 91 78 66 63 56 56 59 62 60 50 74 78 76 69 66 65 78 77 87 98 99 98 94 92 92 94
99 98 100 98 100 100 98 98 98 91 100 99 100 100 95 91 91 89 97 92 91 83 80 77 74 73 71 68 75 68 69 77 80 76 80 87 90 97 99 98 96 94 93
98 99 99 96 100 98 100 99 100 97 98 100 100 100 100 97 89 85 87 91 94 87 82 85 85 82 79 72 78 74 67 86 82 79 79 96 91 93 99 98 97 95 92
89 83 90 92 90 91 95 99 100 100 100 100 100 100 100 99 98 100 99 96 99 97 85 82 65 71 72 69 63 73 78 76 76 84 80 85 84 88 92 98 95 99 95
59 64 70 80 81 82 89 90 95 97 99 100 100 100 100 100 99 98 99 96 94 93 90 77 78 76 79 74 74 77 83 77 72 72 83 85 84 81 92 100 97 99 98
41 41 41 47 57 65 72 80 86 87 87 95 96 97 100 99 100 98 98 98 98 92 92 73 80 80 80 85 82 78 76 79 85 92 93 93 88 88 90 100 97 97 98
39 39 39 39 42 45 46 40 51 64 74 82 83 88 93 94 98 99 99 100 100 98 94 83 86 87 85 86 87 89 95 99 100 98 95 97 97 98 95 100 100 99 100
36 38 41 43 42 45 51 51 47 46 48 51 56 66 79 87 94 94 95 99 100 99 99 97 95 97 96 97 97 97 96 97 94 92 89 93 99 100 100 99 95 100 99
36 35 35 36 40 41 42 50 54 53 51 50 52 59 65 72 81 87 90 94 96 98 98 100 99 100 99 98 100 100 99 98 97 96 98 100 100 100 100 97 99 99 98
38 38 37 36 37 37 38 53 56 54 52 54 51 53 58 69 78 91 91 93 92 95 98 100 99 100 100 100 100 99 99 99 99 100 100 100 100 100 98 96 98 97 92
37 38 38 37 37 35 39 60 62 58 52 51 52 50 52 60 65 82 85 91 95 98 93 97 98 100 99 99 99 98 100 100 99 100 100 100 100 100 100 100 99 96 91
39 39 40 38 38 34 38 52 60 58 49 47 50 53 55 54 57 68 70 74 80 91 97 95 90 91 96 99 98 99 100 100 99 98 100 100 100 100 100 100 98 92 86
41 42 43 42 42 41 43 55 62 57 50 46 48 53 55 50 56 55 61 68 72 72 80 87 99 91 92 95 98 100 100 98 96 91 100 99 100 100 100 100 95 89 85
45 46 47 48 48 48 51 57 61 60 51 51 53 53 49 48 54 59 67 68 66 68 66 73 82 88 88 90 96 100 100 98 98 99 98 98 98 100 100 100 98 92 93
52 55 54 54 54 55 56 61 60 60 56 50 45 44 45 52 58 67 75 74 66 59 58 60 66 74 78 73 76 97 100 100 99 99 98 100 100 100 100 100 100 100 100
56 58 56 57 56 54 49 46 58 63 56 50 47 46 47 50 60 68 78 74 69 66 64 72 75 76 79 85 91 85 94 100 98 100 99 100 100 97 100 100 99 100 100

GFSMA_925_rhum_108.txt.gz
RH
68 73 79 78 81 82 79 84 87 87 84 83 80 61 61 67 61 61 59 58 60 60 52 70 96 98 96 95 96 96 94 90 84 82 78 74 61 57 60 63 74 79 84
67 68 67 66 72 75 82 81 79 81 80 79 76 74 58 51 57 57 55 56 56 61 60 51 66 95 97 94 93 95 89 90 95 93 85 81 72 56 54 54 62 86 84
68 71 73 75 74 72 72 70 77 76 76 75 72 72 72 60 52 55 53 52 52 56 56 56 53 60 92 96 94 93 86 82 86 87 91 90 82 64 53 56 59 57 57
69 68 68 67 68 68 69 72 72 69 72 77 75 72 75 80 68 53 52 51 51 52 53 53 51 53 57 70 93 91 89 85 80 82 84 89 90 77 57 55 57 56 58
67 69 68 65 63 63 66 70 72 80 86 84 83 77 72 75 77 66 55 49 49 46 51 52 50 50 53 58 66 87 90 82 88 83 84 86 89 82 65 57 57 60 61
69 67 66 64 64 64 66 69 76 78 75 87 91 92 89 78 77 86 77 68 54 44 43 50 50 52 53 54 57 62 73 82 76 75 80 84 90 91 75 61 66 64 68
70 69 68 69 69 69 69 69 70 76 82 83 94 96 97 95 94 92 85 72 61 50 45 42 45 51 57 57 56 56 58 61 66 70 69 78 91 96 94 81 84 74 70
79 80 82 82 82 79 77 75 73 75 78 82 89 86 91 84 98 99 95 83 73 58 47 47 47 47 51 57 65 62 56 57 59 67 71 70 85 97 99 93 90 90 86
89 88 88 86 90 93 89 87 85 81 85 84 82 86 96 88 85 84 98 90 80 75 60 55 50 54 55 56 56 62 53 59 61 63 68 73 77 96 99 98 93 92 93
91 91 93 94 96 94 97 100 97 89 87 86 88 85 85 82 90 87 79 90 85 82 73 66 59 52 56 58 58 60 52 57 54 60 66 72 78 97 99 99 96 92 93
97 98 98 99 98 97 98 99 99 99 98 97 90 89 91 94 96 93 89 84 80 79 73 67 66 61 51 47 50 58 66 70 67 70 68 73 78 86 96 99 96 93 94
93 93 95 97 93 90 91 99 99 99 99 98 99 97 96 88 84 95 97 89 90 86 75 64 62 63 62 54 62 66 75 68 65 64 62 71 76 86 93 99 98 96 95
71 71 77 85 91 89 90 93 95 92 99 100 100 97 98 97 92 91 91 91 95 94 90 85 78 77 78 77 77 71 61 61 66 64 66 72 79 84 83 90 99 99 98
53 48 45 57 67 66 74 81 98 92 94 96 100 100 100 100 100 99 99 95 99 98 96 86 79 79 75 72 76 75 69 68 71 68 70 73 74 81 82 89 94 100 99
41 43 38 38 40 47 51 61 76 82 91 94 97 97 100 98 99 100 100 100 99 99 98 91 83 79 75 72 69 75 74 71 63 61 68 67 67 66 70 68 86 94 100
35 35 38 37 37 40 46 44 48 50 70 87 86 86 95 96 95 98 96 100 100 98 96 82 81 78 73 76 75 80 75 84 81 80 78 72 76 79 84 71 84 92 93
37 36 36 36 41 40 45 51 52 53 54 56 67 70 79 77 91 93 92 96 99 100 97 88 83 78 86 91 91 84 86 88 85 88 89 92 88 89 91 92 92 97 98
37 37 36 36 37 40 42 45 54 59 56 55 55 53 60 71 80 65 83 95 96 98 100 97 97 100 100 100 99 95 100 100 100 100 98 100 95 94 94 96 96 100 100
39 38 38 37 37 37 38 39 39 53 55 54 54 52 54 61 67 59 88 79 95 96 97 100 99 98 99 100 100 100 99 100 100 97 95 94 97 94 95 96 100 100 100
39 37 38 38 38 37 37 36 39 42 52 52 51 53 52 57 58 66 83 81 88 93 95 97 98 98 100 97 97 98 96 93 92 89 92 93 96 95 94 95 100 100 100
42 41 41 42 42 40 36 47 58 62 52 51 46 50 53 55 52 69 67 75 78 78 88 94 90 89 89 99 100 98 100 97 96 92 89 91 98 100 99 100 100 100 98
42 42 42 43 43 43 46 48 58 61 50 44 50 50 52 56 52 57 59 67 72 79 78 88 89 96 89 86 96 100 100 100 99 87 98 91 98 100 100 100 98 100 100
45 46 47 49 49 49 52 53 58 61 62 54 52 50 52 54 48 54 60 69 61 66 71 75 82 86 90 96 94 94 99 99 98 92 96 99 98 100 100 100 100 100 100
50 52 54 56 56 55 58 60 62 65 59 60 57 53 49 47 46 55 62 72 75 72 64 60 62 73 74 74 82 94 95 97 99 98 99 100 98 99 98 99 100 100 100
56 58 59 59 57 55 55 57 54 54 64 66 59 52 50 50 49 55 66 72 76 71 70 68 68 69 72 79 79 83 97 98 97 98 92 100 98 100 100 99 99 100 100
56 56 54 52 50 49 42 47 49 59 68 72 73 73 69 64 59 58 62 70 79 80 76 72 76 76 67 71 76 83 90 97 92 92 87 100 100 99 100 99 99 100 100

GFSMA_925_rhum_111.txt.gz
RH
75 73 75 81 86 87 86 85 86 86 86 82 77 80 78 69 72 69 54 66 64 60 60 64 89 97 95 95 96 96 95 91 92 86 81 76 72 60 58 63 72 81 82
72 71 64 68 76 79 82 82 85 86 86 87 84 81 80 74 64 68 58 60 62 60 61 62 61 90 96 98 94 95 90 94 95 96 94 86 84 72 61 63 62 79 88
70 67 64 68 67 72 72 74 74 80 83 84 82 81 76 76 75 61 62 58 58 58 59 62 61 56 83 95 95 94 88 84 81 86 90 92 92 83 69 62 55 57 60
74 70 70 72 69 69 68 67 69 75 77 78 79 78 79 78 73 74 61 62 58 54 55 56 57 57 56 81 93 95 92 86 81 82 85 88 89 90 83 64 60 56 58
74 72 70 71 69 66 65 65 68 70 72 72 72 75 76 76 75 75 77 67 63 54 53 54 54 54 54 57 84 91 91 90 83 80 79 79 83 87 88 79 65 58 57
75 75 75 74 71 65 65 66 70 71 73 73 74 72 72 72 78 82 80 77 65 59 53 50 50 53 52 52 54 65 89 87 85 76 79 76 78 87 94 86 71 61 58
80 90 81 79 75 75 75 74 74 74 75 80 89 91 92 86 86 90 92 85 79 74 62 59 60 48 50 51 50 53 59 76 85 81 72 70 75 80 93 99 86 73 68
99 100 93 85 87 84 83 84 88 89 85 82 85 88 87 69 77 74 84 95 89 83 74 68 55 49 50 53 49 54 54 57 78 77 70 64 66 72 88 100 96 93 87
100 96 90 88 87 91 97 100 99 99 100 94 89 89 92 86 85 73 88 97 93 90 83 73 67 61 52 55 48 49 51 56 59 62 70 69 67 69 77 100 100 96 95
97 94 92 89 90 94 95 97 99 97 99 97 91 91 91 87 88 82 76 78 80 92 87 82 72 64 60 51 53 46 46 55 56 63 64 73 73 75 77 100 100 98 95
97 97 93 91 87 92 93 95 88 92 97 100 100 92 87 93 97 94 90 75 81 86 88 85 82 73 63 57 59 57 49 50 50 56 58 66 83 91 97 98 98 98 93
67 70 78 80 82 82 87 94 95 91 82 90 99 100 98 86 75 86 90 84 82 77 85 83 85 78 72 66 65 62 55 51 51 60 63 66 74 75 83 98 96 98 96
42 41 44 48 48 48 48 66 82 89 97 92 96 100 99 100 100 91 87 85 86 86 85 82 80 79 76 78 70 62 58 55 57 68 75 90 81 72 72 75 85 96 99
42 39 39 39 42 48 52 54 56 55 75 89 95 92 98 96 98 100 99 97 96 93 92 91 91 88 80 76 81 67 73 72 71 74 75 73 72 70 72 78 79 84 86
36 34 36 36 36 38 48 51 56 62 64 70 82 86 98 94 91 100 97 100 98 99 98 94 94 94 99 96 97 95 88 84 78 72 68 62 70 76 75 76 83 80 82
36 36 36 35 34 35 38 42 46 55 57 65 78 78 87 94 95 97 92 99 100 98 98 96 92 89 82 83 90 93 91 85 84 85 76 74 72 77 79 79 77 83 76
37 37 35 34 35 34 37 38 31 41 53 58 58 58 61 69 84 68 83 94 95 99 97 92 93 86 99 91 86 90 92 87 83 87 83 86 84 86 89 88 88 88 83
38 37 37 36 37 36 37 40 37 29 40 53 56 56 55 62 73 65 77 87 90 96 99 95 94 93 94 92 99 100 100 100 99 98 98 100 99 100 100 100 100 100 95
38 38 39 40 40 39 38 42 45 49 43 37 44 51 55 55 61 56 83 77 84 84 87 99 97 94 96 98 94 91 98 100 100 100 100 99 100 96 95 95 95 93 90
41 42 42 42 44 43 41 43 51 56 58 50 38 37 51 54 56 60 67 63 86 83 82 92 95 89 85 90 95 99 98 97 98 99 94 93 85 83 86 88 91 88 88
43 44 45 46 47 48 49 55 56 58 62 62 52 52 55 52 49 67 60 62 70 75 85 91 93 89 92 93 93 98 100 100 96 94 94 86 86 83 89 96 88 81 86
41 43 46 47 46 51 59 60 62 63 64 65 60 56 56 57 55 58 63 67 73 76 77 82 93 88 88 92 92 98 96 98 99 99 100 98 89 87 98 100 98 88 96
47 49 51 54 53 53 60 62 64 63 64 57 59 63 60 58 53 51 54 58 70 68 74 79 80 76 94 83 86 92 95 98 95 90 91 96 94 91 88 99 100 99 99
48 52 53 52 51 49 55 64 62 56 54 57 63 66 67 69 67 69 61 59 69 71 68 73 73 79 81 82 82 82 86 91 94 83 84 97 93 90 86 90 96 100 100
50 52 52 52 52 50 53 56 55 59 63 65 68 71 74 72 72 68 68 71 71 73 71 74 76 81 79 80 73 78 85 89 81 78 79 97 94 98 95 90 86 97 100
52 52 53 52 52 52 55 62 65 66 70 72 78 81 76 71 70 69 72 80 95 89 82 79 75 76 79 72 66 84 85 95 81 80 85 97 93 100 100 97 89 86 99

GFSMA_925_rhum_114.txt.gz
RH
84 81 86 84 84 76 75 79 85 78 86 85 88 89 87 83 80 70 69 65 55 66 68 72 87 94 95 95 94 95 96 93 89 89 86 80 80 73 73 74 75 77 82
88 81 79 78 81 83 78 75 83 78 81 83 76 82 83 82 84 74 62 63 67 61 66 68 66 80 94 92 96 94 91 94 95 97 97 94 88 85 78 86 74 83 95
91 88 76 74 66 75 77 78 78 74 79 76 76 76 76 80 89 86 82 69 62 62 64 65 68 68 70 89 92 96 90 89 89 89 89 92 93 92 86 83 77 59 76
76 91 81 72 67 75 76 74 72 73 76 81 79 78 78 79 80 80 82 80 78 65 63 64 67 65 66 69 87 91 95 88 86 85 80 79 86 89 90 86 87 63 58
77 87 87 77 76 79 76 70 69 70 72 72 74 74 74 76 75 75 76 81 82 65 63 63 70 65 64 61 60 75 86 91 92 86 83 80 81 87 91 89 82 76 61
81 84 84 94 89 86 79 72 70 73 76 77 80 79 75 73 71 69 67 69 76 81 74 65 62 60 61 59 57 58 70 86 90 91 85 84 80 80 84 98 97 87 77
83 98 98 92 92 88 94 92 90 88 83 83 86 82 82 82 78 74 70 71 73 72 83 76 70 60 55 57 58 56 53 77 85 87 89 83 81 81 82 96 100 96 87
99 97 100 100 100 100 100 100 100 99 99 95 94 92 88 75 69 65 66 69 69 72 84 84 77 67 62 56 52 54 53 54 78 86 82 72 71 79 78 92 99 99 95
98 95 97 100 99 100 99 99 94 96 99 96 93 90 90 90 90 70 72 82 84 88 86 88 85 80 73 68 66 63 53 48 55 62 84 89 70 71 71 79 96 99 98
97 98 98 98 99 96 93 99 89 99 100 99 96 93 98 94 90 82 66 73 74 81 80 90 89 82 76 67 64 62 52 51 53 55 55 82 87 78 70 76 87 93 98
94 90 86 82 86 89 93 90 90 90 92 100 100 100 93 94 90 90 90 72 66 76 70 75 83 83 77 75 72 66 61 59 57 53 52 60 87 85 88 89 90 88 94
46 56 51 50 51 51 56 70 78 86 96 96 98 99 100 99 97 97 96 91 85 74 78 78 81 78 78 72 70 71 68 65 62 52 50 64 65 73 89 85 92 92 95
36 35 33 32 37 42 46 51 52 51 58 79 99 99 97 100 99 100 94 91 92 84 81 79 89 83 80 79 79 76 70 66 65 65 62 71 59 61 76 75 86 88 92
36 34 34 34 34 34 44 46 54 60 64 66 68 69 85 97 94 100 100 97 90 81 83 80 88 92 85 85 84 79 78 74 79 72 70 68 71 64 71 71 82 85 85
38 37 37 36 36 34 36 37 36 54 56 64 79 73 86 85 93 94 87 94 99 95 90 92 100 95 97 100 93 86 88 80 81 83 74 80 75 72 69 74 77 77 84
35 34 33 31 31 32 32 36 32 28 30 46 62 61 60 68 90 90 90 98 90 97 96 89 95 96 90 92 99 100 100 100 96 98 86 82 78 81 84 86 82 80 83
34 34 35 35 35 35 32 38 36 38 33 31 32 47 53 62 70 61 71 93 92 97 93 86 94 92 94 84 91 92 100 99 98 94 100 97 93 83 82 86 87 87 88
35 38 38 38 40 40 39 45 49 51 51 47 43 38 40 61 58 55 69 83 83 93 94 92 88 92 85 98 96 91 96 100 100 100 100 96 94 91 90 91 90 90 90
36 40 41 42 45 44 43 44 54 57 59 59 57 48 51 58 56 56 74 66 77 87 85 94 93 90 88 85 88 92 98 96 94 95 97 100 100 100 100 100 100 98 97
41 43 45 47 47 45 48 59 60 62 63 64 60 52 53 57 67 68 64 62 73 75 78 84 88 91 86 80 87 99 96 92 93 92 91 100 95 99 99 98 99 99 97
42 44 47 48 49 49 56 64 65 66 67 65 55 55 58 66 68 68 66 65 69 74 78 85 86 87 86 88 91 86 91 89 84 100 98 98 97 93 94 96 100 100 100
43 46 46 49 48 48 66 66 68 64 62 60 59 62 60 62 69 67 77 74 69 75 78 82 88 92 86 99 99 100 99 95 91 83 95 97 88 95 90 90 92 100 100
43 46 48 49 50 49 66 68 64 59 56 58 64 64 69 72 70 69 68 71 69 83 80 76 77 82 94 85 86 89 89 94 93 88 85 86 83 84 85 80 85 92 99
46 50 51 51 51 50 63 63 63 62 63 65 68 71 76 78 74 74 71 71 73 77 77 80 81 78 76 82 84 81 83 88 87 76 78 95 82 87 83 77 77 79 92
49 52 53 54 53 56 62 69 71 73 74 72 72 79 80 76 76 71 72 80 83 78 68 82 85 84 84 83 84 79 83 100 91 80 74 81 75 90 76 75 68 76 80
52 54 56 55 56 60 63 75 78 77 77 77 80 80 77 77 74 74 86 82 89 87 78 87 96 92 86 86 81 70 73 100 86 78 89 92 96 99 99 95 93 85 82

GFSMA_925_rhum_120.txt.gz
RH
37 58 69 72 90 91 87 88 86 82 81 78 79 81 83 83 91 89 84 79 78 80 67 77 87 92 96 98 97 96 92 89 95 96 94 96 90 82 78 78 81 84 94
39 41 67 70 68 82 87 86 88 84 84 86 78 77 81 80 88 88 83 81 82 83 79 74 75 84 87 94 97 97 93 86 88 95 96 97 92 94 97 97 91 81 75
42 40 46 52 66 79 87 90 83 88 94 96 86 88 80 76 79 82 84 84 80 80 81 78 73 70 73 77 87 95 95 92 85 86 85 84 91 95 91 98 100 97 92
47 52 66 84 82 82 93 96 88 90 97 95 88 82 81 75 73 81 85 85 83 78 66 70 52 52 61 71 79 89 91 90 92 86 83 84 82 84 85 86 90 92 93
99 92 89 93 94 97 97 94 97 99 96 93 92 82 81 83 80 80 77 74 73 75 73 66 66 66 71 72 72 78 83 88 89 87 88 86 86 82 79 83 85 86 91
94 97 99 91 90 94 99 100 98 100 98 92 93 92 88 84 80 76 72 70 69 68 67 67 62 61 59 60 70 74 72 70 78 88 88 85 87 89 86 79 80 84 94
99 100 98 92 98 98 98 98 99 98 100 98 100 91 87 80 75 70 67 69 70 65 67 69 73 73 70 67 69 72 85 76 79 76 85 85 85 90 92 91 86 79 88
100 100 99 99 98 99 100 95 94 90 90 88 96 99 94 76 75 71 67 64 62 64 69 69 68 67 70 77 79 77 75 86 90 87 86 86 80 82 82 80 88 90 85
77 76 81 91 97 98 99 99 100 99 99 98 95 94 95 97 92 70 69 67 77 84 82 82 81 80 77 70 69 70 74 75 77 90 87 87 87 87 78 83 80 85 89
53 47 42 42 46 59 74 91 95 96 98 99 98 98 98 100 96 93 77 74 78 78 71 65 66 82 93 85 77 72 69 72 76 74 88 88 88 87 88 82 82 79 81
36 34 34 36 38 43 46 54 55 54 86 99 99 97 96 93 100 96 94 84 85 83 75 66 75 88 91 99 98 100 99 100 94 80 83 84 88 91 87 88 87 86 80
33 32 31 31 31 32 36 45 52 54 55 60 63 66 95 98 95 93 92 90 91 82 70 72 93 97 90 78 78 81 82 98 99 99 90 85 81 86 88 88 91 92 77
35 32 30 29 28 29 28 34 39 39 56 64 74 66 64 90 77 93 92 86 89 71 78 66 90 92 83 72 71 86 96 77 98 100 99 97 89 85 78 86 90 92 88
31 30 28 28 28 26 27 26 24 20 24 38 63 61 62 78 76 98 89 93 86 82 73 78 62 88 62 51 80 72 99 82 92 99 99 100 99 90 85 83 84 91 91
28 30 32 33 34 34 36 37 37 33 27 23 24 31 45 56 64 65 56 66 87 92 83 71 82 73 60 82 85 85 90 81 93 97 98 100 100 100 91 85 83 86 91
26 25 27 29 32 34 36 42 47 51 47 43 40 32 31 40 65 64 60 64 93 92 82 68 87 82 58 62 84 84 66 96 96 88 91 98 99 99 99 97 93 91 89
25 25 29 31 33 35 36 39 46 53 56 57 54 46 39 42 48 49 60 71 83 89 88 78 77 65 64 68 85 72 92 80 76 77 89 99 97 98 100 100 100 96 94
29 33 36 37 38 39 39 44 54 60 64 64 63 50 48 49 50 62 69 70 74 68 97 92 79 80 73 69 83 92 92 90 80 68 94 100 90 97 98 100 100 100 98
27 31 34 37 38 39 40 45 61 66 67 67 64 56 57 56 62 72 75 78 80 81 80 89 88 83 77 73 76 86 85 84 80 52 100 93 94 89 90 98 100 100 100
30 33 36 39 41 40 40 56 68 70 68 65 62 58 61 61 73 78 78 76 77 83 82 86 88 85 83 79 81 86 86 86 85 73 77 45 31 50 77 81 90 100 99
31 36 39 42 44 44 45 72 72 71 68 65 62 60 65 67 80 83 80 84 80 82 82 93 92 75 88 88 91 92 92 90 84 69 75 78 82 57 40 60 76 93 99
35 40 43 47 47 47 46 74 70 69 66 63 66 68 71 71 75 84 79 84 80 80 83 87 92 93 92 95 95 97 98 93 89 74 84 82 83 92 95 88 72 64 84
40 42 45 49 48 48 50 73 72 75 74 73 73 74 72 76 75 74 76 80 76 81 82 84 92 94 98 91 94 100 98 97 94 88 82 82 71 83 94 88 82 94 77
40 44 46 50 51 49 53 74 76 79 80 77 75 74 75 77 75 80 79 75 74 76 74 80 86 83 83 84 85 92 95 98 91 76 71 89 73 96 77 54 96 100 99
42 46 51 53 53 49 52 76 80 81 80 78 76 73 79 85 80 79 76 78 83 86 75 83 84 86 86 81 77 85 92 98 88 86 69 98 86 81 72 57 71 84 84
44 51 54 55 52 53 57 70 84 82 83 82 79 78 79 83 81 77 82 94 100 91 88 91 86 83 73 60 60 77 90 99 97 92 65 76 81 85 89 66 71 60 53

GFSMA_925_rhum_123.txt.gz
RH
41 38 34 35 53 60 65 80 92 89 84 90 86 88 86 80 80 86 94 82 84 82 82 85 94 91 92 95 97 96 92 89 87 87 89 90 88 83 77 79 91 94 93
52 46 42 43 58 67 63 67 79 93 95 98 100 100 93 82 82 80 81 79 77 86 85 84 87 89 88 86 91 94 91 88 90 87 85 96 96 90 95 94 95 96 96
60 54 56 64 75 79 95 95 96 87 91 89 97 97 99 100 94 80 78 79 79 80 83 86 84 70 71 72 76 84 86 82 90 91 88 87 88 86 87 91 98 98 99
99 98 99 100 98 97 98 98 99 99 94 94 98 100 100 95 98 85 83 81 81 81 77 72 69 74 69 63 54 85 90 87 80 85 90 88 85 85 83 84 86 89 93
100 100 98 93 88 89 89 92 94 99 100 100 98 99 99 99 99 96 88 80 82 78 77 74 74 75 71 75 69 84 78 81 88 81 86 92 90 83 85 84 78 80 84
98 99 96 84 83 83 89 79 91 97 99 98 97 94 94 96 96 94 91 88 85 81 82 79 82 85 70 67 68 68 90 93 86 87 85 80 83 88 82 89 91 83 79
96 99 100 97 100 100 99 98 91 93 97 85 79 73 81 86 92 90 76 81 84 94 97 98 98 96 91 79 70 68 73 90 92 89 94 93 84 85 89 80 86 93 90
74 80 87 91 95 99 97 92 97 100 99 91 92 97 86 80 79 74 66 76 78 86 83 82 81 87 92 90 85 72 73 84 89 88 89 96 98 96 91 83 85 84 90
55 51 50 53 60 68 77 92 90 98 100 99 100 98 91 86 89 74 83 79 82 82 79 70 73 66 78 91 100 100 99 98 96 99 97 90 90 95 95 94 89 83 82
36 37 39 41 44 46 49 52 53 77 99 99 99 94 96 99 92 85 87 82 81 79 77 72 72 96 99 94 90 96 89 96 100 100 100 97 95 91 96 96 95 88 84
32 31 30 30 32 33 49 54 51 56 76 84 92 87 89 91 100 94 95 76 74 76 72 60 85 100 90 82 67 64 55 93 98 100 100 100 100 97 92 90 99 98 90
28 25 24 23 23 24 27 45 33 45 63 75 69 74 91 90 81 85 78 71 74 64 47 81 98 94 87 60 50 44 60 100 98 100 100 100 100 99 99 97 93 99 99
30 27 23 20 18 19 19 20 21 23 30 68 72 80 76 89 91 83 82 71 66 53 75 49 87 87 76 42 60 49 70 94 90 100 100 100 98 100 99 99 99 97 97
29 25 22 21 21 20 20 21 22 23 23 26 26 36 64 81 85 89 82 73 64 57 60 64 72 70 65 61 66 75 84 50 98 100 100 99 99 95 94 99 99 98 94
26 27 28 28 29 30 31 32 32 31 31 28 26 25 27 39 54 91 90 83 75 70 64 65 70 76 71 67 55 81 80 99 91 91 92 96 98 99 89 94 100 100 95
26 25 27 30 32 33 34 38 42 47 50 50 50 43 35 32 38 46 62 77 83 87 74 64 69 79 76 74 72 77 79 94 90 82 86 96 100 99 92 87 93 99 100
25 26 29 31 33 36 36 40 46 53 56 58 57 52 44 41 44 47 60 80 82 89 78 68 76 82 81 82 79 78 84 76 80 75 78 96 100 97 92 92 96 90 99
25 24 26 28 31 33 34 38 45 54 60 63 64 59 55 59 57 64 82 84 87 87 90 82 79 84 85 84 82 83 81 76 80 77 77 100 78 81 82 86 98 94 88
26 24 25 29 32 34 34 37 50 63 67 67 65 62 57 60 70 78 80 81 82 82 89 88 79 83 83 84 85 83 79 81 80 79 80 81 73 80 83 86 94 99 96
28 28 31 34 36 37 38 41 66 70 71 69 68 66 61 66 77 84 82 82 81 89 86 82 79 78 74 75 80 78 80 80 84 78 82 78 75 73 82 84 93 92 97
30 30 32 34 37 39 41 49 74 73 69 65 61 60 63 67 81 81 81 80 83 84 82 80 76 76 71 73 76 81 86 89 88 78 83 80 77 68 70 92 98 99 95
30 30 35 38 42 44 44 66 74 72 72 71 70 70 71 69 70 86 82 80 81 78 77 79 78 74 72 78 81 83 90 81 81 75 82 81 73 73 83 94 84 92 99
30 32 38 42 45 46 45 70 74 75 77 78 77 77 79 76 77 75 75 84 81 81 79 79 79 76 82 80 85 89 83 81 77 78 84 78 70 78 84 66 64 76 100
30 36 40 43 47 46 46 69 75 78 79 78 76 75 76 74 77 88 82 82 81 82 81 87 87 88 89 89 82 79 77 80 79 77 80 81 71 77 71 65 62 97 88
33 38 41 46 50 49 49 58 79 82 82 82 78 78 77 83 85 85 79 81 81 85 85 82 87 88 86 83 84 78 76 84 80 76 77 87 72 78 77 72 72 75 68
35 42 46 50 51 50 48 57 84 85 87 85 82 77 77 87 79 77 84 92 96 86 86 86 84 84 91 82 70 82 88 84 83 79 64 84 81 80 73 68 71 70 67

GFSMA_925_rhum_126.txt.gz
RH
64 57 49 47 46 46 60 70 81 89 94 80 85 94 94 92 87 86 87 84 84 84 78 82 96 95 93 92 93 93 91 90 89 86 83 83 86 89 95 95 95 95 94
76 70 66 58 54 51 53 59 68 79 87 96 93 81 87 96 98 93 94 87 87 78 84 84 93 97 96 91 90 93 90 85 85 88 88 86 83 88 92 96 96 96 96
92 95 92 83 74 68 66 63 67 79 92 92 96 99 97 95 97 98 98 96 94 91 81 86 86 90 88 77 81 87 89 93 92 83 83 86 88 86 86 86 88 88 94
100 99 97 83 83 75 71 71 72 86 90 85 95 98 98 99 98 98 99 98 96 97 98 77 80 84 88 86 91 91 84 76 73 92 98 92 93 93 89 85 83 83 85
99 99 96 84 85 83 83 90 79 81 96 91 90 94 98 98 93 96 93 97 96 94 92 94 89 85 80 80 80 92 87 89 86 72 67 90 88 97 98 94 88 84 81
97 99 100 100 100 91 94 93 89 85 94 91 87 84 82 91 100 99 99 97 100 95 92 90 85 77 83 82 80 75 94 94 94 91 91 91 73 66 88 92 93 94 92
87 89 97 99 100 100 93 90 89 94 92 93 78 69 71 74 85 98 79 75 93 93 86 75 80 74 73 77 84 99 99 98 99 100 99 95 93 100 95 92 87 88 93
77 73 78 80 83 89 89 92 94 92 96 98 96 78 64 60 86 90 95 98 90 87 91 89 84 74 77 82 89 98 98 99 100 100 100 100 98 99 99 99 100 97 92
61 63 65 70 73 70 69 67 71 81 95 91 98 99 82 81 76 74 95 97 93 91 83 72 80 86 90 90 90 91 82 74 100 100 100 99 98 96 94 97 96 100 100
53 55 55 58 61 70 70 65 64 67 64 62 72 70 88 97 94 85 76 71 69 62 61 58 54 100 96 84 79 74 55 49 96 98 99 97 97 100 100 100 100 97 99
51 50 44 47 50 52 63 64 62 62 65 61 62 60 59 60 77 84 76 48 45 53 48 37 84 93 83 66 58 67 40 73 88 93 96 100 100 100 99 100 100 100 100
43 40 41 42 44 46 50 49 51 53 54 61 58 56 56 62 61 59 53 46 46 39 35 66 90 81 70 55 48 49 65 85 80 85 91 100 100 100 100 100 100 100 100
40 42 43 42 41 46 49 49 50 50 50 53 49 53 55 56 64 57 56 45 41 35 42 42 60 64 56 51 54 55 74 71 88 86 83 84 92 99 100 100 100 100 100
41 40 42 43 42 43 45 48 51 51 53 58 54 51 49 56 61 66 64 58 46 38 36 48 46 61 63 58 61 70 62 67 89 85 77 80 85 99 100 100 100 100 99
37 38 40 44 44 44 47 50 52 52 53 57 61 57 51 51 56 65 66 62 57 52 41 37 48 55 59 65 66 69 65 69 86 82 80 80 79 100 100 100 100 100 100
36 39 40 43 44 46 47 51 52 57 56 59 56 58 53 54 56 61 66 62 61 61 60 41 48 52 64 66 65 70 68 76 70 74 78 77 90 90 81 83 85 91 100
37 36 36 38 39 40 40 43 47 52 55 57 60 62 57 56 57 59 67 67 66 67 63 54 55 59 65 67 69 69 67 65 62 69 74 79 83 77 75 78 82 85 92
38 35 37 39 40 42 43 42 42 48 54 57 59 62 58 54 57 60 64 64 64 65 67 63 63 64 68 68 69 71 68 64 67 66 77 75 80 76 76 76 80 91 90
40 38 36 38 40 44 44 42 43 54 59 60 61 61 58 58 56 58 63 66 70 69 70 69 65 64 65 67 67 69 66 65 66 66 67 71 75 75 74 73 80 93 97
41 38 38 40 44 45 45 44 47 56 58 62 64 64 62 61 62 65 66 66 66 68 67 67 65 64 62 62 62 62 62 63 69 71 69 69 70 68 68 70 86 89 82
43 41 39 41 42 45 43 45 52 64 65 61 61 63 63 68 67 80 72 70 68 66 66 68 63 62 61 58 60 63 65 70 78 68 67 63 62 62 61 66 76 70 70
46 43 42 41 43 45 43 38 69 62 64 66 64 63 66 76 74 78 84 81 80 75 69 66 64 60 58 59 60 63 73 82 74 60 61 64 61 62 62 66 67 69 76
47 45 42 44 44 46 42 40 71 67 68 66 71 70 67 63 72 71 73 77 75 77 78 76 71 66 64 65 71 81 81 77 66 63 64 67 62 58 62 60 67 71 78
47 43 41 44 48 51 43 45 71 66 65 71 74 73 69 67 67 76 77 73 71 69 68 71 72 77 75 77 92 89 83 73 66 61 60 69 61 64 61 63 64 70 77
48 46 43 46 52 54 50 44 70 66 71 72 70 70 70 71 73 78 78 75 72 71 71 78 81 78 79 81 78 83 78 71 68 60 60 66 63 65 69 71 62 65 70
50 47 49 52 58 59 59 48 71 70 72 70 68 68 72 80 84 81 79 79 80 78 78 72 68 63 66 70 75 76 73 76 75 75 60 67 74 76 73 62 63 66 64

GFSMA_925_rhum_129.txt.gz
RH
64 60 53 51 46 42 40 39 44 54 58 60 66 76 80 87 74 78 82 87 84 86 83 81 91 92 93 93 93 87 89 86 86 87 87 84 81 83 90 95 95 95 95
76 71 70 64 61 56 56 55 54 55 57 62 72 73 76 86 96 87 86 85 87 86 85 83 82 85 95 98 98 90 86 87 84 85 86 87 85 84 83 89 91 95 96
87 99 89 77 70 66 60 58 57 58 62 65 63 65 77 86 93 97 90 90 86 94 90 84 84 86 88 99 100 99 98 94 90 92 93 91 87 88 87 85 85 85 87
84 84 82 69 73 68 67 67 64 62 66 68 76 77 80 87 92 99 99 95 92 98 99 99 97 99 100 95 99 94 91 88 80 82 81 80 94 99 94 97 91 85 86
84 82 96 89 94 77 76 80 77 74 78 78 81 77 82 83 86 91 100 100 99 100 97 99 98 98 95 88 94 94 92 92 92 88 88 86 85 74 85 86 94 97 91
81 84 94 94 96 92 80 77 76 80 89 86 78 73 68 72 80 90 99 99 97 93 89 91 91 88 84 90 98 98 98 100 100 99 99 98 92 93 95 81 76 81 93
77 74 75 76 77 84 80 81 84 80 86 88 76 69 60 62 76 92 94 92 94 95 86 84 78 71 83 77 80 83 94 92 98 100 100 100 99 99 96 99 99 97 71
66 60 67 66 68 64 64 62 65 70 82 84 90 80 64 59 72 85 92 96 96 90 84 83 86 94 93 87 85 86 83 88 99 98 98 97 96 95 94 96 98 98 99
56 59 57 59 61 67 66 62 62 62 63 58 82 87 82 89 77 81 87 78 68 67 62 65 61 91 93 90 87 83 74 64 91 99 99 95 92 98 99 99 98 99 99
52 51 48 48 51 54 61 57 56 58 58 54 54 52 61 80 89 78 67 56 48 41 44 31 82 90 80 65 58 63 41 70 80 78 85 92 99 100 100 99 96 99 100
45 42 43 44 45 44 50 50 51 51 51 55 53 50 48 49 65 57 59 43 37 38 36 32 92 82 75 56 46 51 58 77 77 82 84 83 98 99 99 99 99 100 100
40 42 39 42 41 46 48 49 50 49 50 50 46 48 50 49 53 50 49 44 40 34 31 47 63 72 55 50 49 52 65 70 76 83 79 80 83 86 91 100 97 100 100
40 42 42 43 42 44 47 50 53 52 52 53 49 46 48 52 57 53 53 48 45 36 32 33 56 57 54 58 56 56 61 65 75 84 80 77 79 80 87 97 98 100 100
38 41 42 42 42 42 45 47 48 49 48 57 56 55 50 50 53 58 62 61 56 41 35 35 38 52 54 58 63 68 64 65 77 79 80 80 79 85 87 85 84 84 91
38 33 41 38 42 44 46 48 52 52 53 57 58 58 51 51 54 58 62 58 55 56 51 34 39 47 51 57 62 67 68 68 74 71 74 79 80 83 83 78 78 78 80
40 38 38 38 39 40 43 44 48 51 52 52 51 58 54 54 53 59 62 62 59 59 64 46 52 50 55 61 60 66 68 71 66 64 70 76 81 83 82 78 78 77 82
35 34 32 32 31 32 34 36 38 43 46 49 54 57 60 54 54 56 61 66 64 64 67 62 58 60 63 65 66 66 67 63 60 63 69 74 77 81 81 79 77 77 86
38 36 34 32 31 32 35 36 36 36 42 48 51 54 58 49 54 54 59 60 62 62 64 67 67 67 66 64 64 68 67 64 61 62 68 70 70 76 79 76 75 77 89
39 36 36 34 32 32 36 36 35 36 45 50 52 53 54 54 53 51 55 61 63 67 68 71 70 67 65 63 63 63 62 61 62 64 68 67 69 72 68 70 70 76 87
41 38 37 35 34 36 38 40 39 40 46 50 55 58 58 57 56 58 62 63 61 64 66 66 68 71 67 63 60 59 62 63 67 70 71 68 67 62 63 64 65 72 78
41 40 39 37 37 38 41 41 42 46 54 58 55 56 58 61 64 69 74 73 70 69 68 71 70 68 66 60 60 61 64 70 69 71 66 63 61 62 63 60 63 65 72
44 43 42 40 37 38 40 42 38 57 56 58 59 57 58 62 72 73 73 82 82 81 77 75 74 71 65 62 62 66 75 75 81 69 64 64 63 65 64 62 59 64 70
46 45 44 42 40 39 44 57 51 61 62 58 61 64 67 60 60 67 68 71 74 73 72 76 80 76 72 73 73 76 80 84 83 75 70 68 64 65 63 63 63 66 67
47 46 46 43 40 40 47 58 48 66 62 57 62 68 69 66 64 65 71 76 75 73 73 70 72 76 79 80 85 90 94 98 88 74 67 69 64 65 69 67 63 66 70
48 47 46 42 40 43 51 59 63 61 61 60 64 66 66 66 66 72 77 79 77 76 74 72 78 78 74 71 71 73 83 83 81 74 68 68 68 71 72 71 70 61 66
50 49 48 46 43 46 52 62 70 62 61 62 62 64 66 69 74 78 84 85 87 85 80 84 79 74 65 63 66 65 70 79 82 85 70 71 86 83 81 67 65 62 67

GFSMA_925_rhum_135.txt.gz
RH
76 65 70 73 70 68 67 66 64 63 62 62 61 61 60 64 73 83 88 82 78 86 86 82 94 98 99 98 93 80 78 80 82 87 88 88 83 84 86 95 94 95 95
82 82 85 81 75 77 77 71 69 69 68 72 72 73 68 64 63 71 76 84 90 95 93 88 79 85 100 100 99 97 92 82 88 86 87 89 90 88 87 87 89 93 96
86 87 85 81 81 80 77 72 72 75 71 73 74 66 66 73 78 80 91 90 87 88 94 91 97 98 91 98 97 92 96 100 99 92 78 90 91 91 94 95 93 91 90
84 84 79 83 80 80 80 75 77 77 75 70 66 58 69 70 85 90 80 84 89 92 98 95 97 99 100 100 100 96 89 77 82 87 99 100 99 96 93 86 93 94 100
79 82 80 78 77 73 64 66 77 82 83 62 53 59 66 87 85 82 84 86 88 86 87 90 96 95 94 100 99 100 99 90 67 67 79 95 98 99 93 91 92 90 87
70 74 72 65 63 58 53 50 55 67 62 61 53 64 85 85 83 81 81 83 81 78 77 76 92 98 93 83 84 96 99 94 100 97 96 95 95 95 99 94 89 90 87
60 63 59 55 61 60 55 49 50 54 57 65 51 61 80 89 91 82 69 62 62 57 47 36 54 96 94 90 86 80 91 98 98 100 99 98 94 90 90 94 93 96 100
43 44 44 42 50 51 44 37 37 39 48 55 61 86 93 77 58 86 72 42 55 45 38 42 61 73 71 67 60 64 82 83 86 90 90 88 92 94 95 94 96 98 95
34 30 29 28 31 33 30 26 29 38 46 41 52 73 88 92 87 76 68 44 38 37 35 60 82 78 73 68 53 37 76 75 80 82 81 88 98 100 100 99 99 98 99
26 22 22 23 26 26 24 25 27 29 44 51 37 36 44 54 93 92 63 51 41 32 34 48 86 75 64 53 41 37 58 74 79 82 79 79 84 92 94 96 96 99 100
34 28 19 20 23 24 27 28 28 27 39 40 44 48 43 50 57 68 80 61 38 33 35 31 83 66 59 55 52 53 69 72 75 81 78 77 80 83 84 83 83 92 97
38 33 24 20 22 22 24 27 32 33 33 33 34 39 48 58 67 65 74 71 68 46 30 54 70 58 56 54 55 59 68 73 75 79 78 77 80 83 84 82 84 82 84
38 35 29 21 22 20 23 28 35 40 38 40 41 41 40 48 54 55 64 78 79 58 41 66 56 52 53 57 58 60 61 73 75 78 76 76 80 83 84 81 82 82 81
34 34 32 24 21 21 21 24 30 41 43 43 47 51 48 48 51 51 62 73 83 71 48 47 56 58 58 58 56 61 65 67 76 74 75 74 79 82 83 82 82 82 82
34 34 31 26 22 20 22 24 26 37 44 44 49 51 50 51 52 51 55 60 71 82 80 54 53 57 56 50 58 64 60 68 72 71 72 74 76 80 80 81 82 81 81
34 36 34 29 28 25 24 25 25 29 39 40 44 50 51 52 51 50 56 57 64 73 87 66 64 59 59 59 67 65 64 61 61 72 70 72 80 77 78 80 81 79 80
35 36 36 34 31 28 25 26 26 28 33 37 37 46 50 53 53 53 49 55 59 66 83 72 67 66 65 65 68 59 62 62 61 64 65 76 76 72 82 79 78 73 76
35 37 37 36 33 31 28 26 25 28 31 34 35 44 50 53 55 54 52 54 56 59 66 76 72 73 70 65 67 69 62 64 63 60 74 75 66 77 78 77 75 71 75
33 35 37 37 36 33 31 28 27 27 29 31 32 42 48 52 54 55 55 54 57 60 67 74 80 76 71 66 74 67 65 63 65 69 71 68 75 78 77 74 67 73 72
32 34 36 37 38 36 34 31 30 28 29 30 31 42 49 53 55 56 58 58 59 64 66 74 76 76 75 73 74 70 72 73 72 66 59 66 77 72 69 70 73 70 73
35 34 35 37 38 38 36 35 33 31 29 30 34 39 53 57 56 56 58 61 67 72 78 80 85 83 85 80 77 73 74 76 73 70 71 73 70 75 69 65 67 70 72
42 37 36 37 38 39 38 37 35 34 32 35 37 39 51 59 58 68 70 73 82 83 82 86 86 89 89 86 88 83 80 82 82 74 83 91 91 85 71 69 70 71 72
56 42 38 38 39 39 40 39 38 42 42 39 35 36 46 57 60 61 63 69 70 73 76 77 81 84 87 76 77 81 86 87 91 92 97 94 86 80 69 71 73 75 75
66 58 45 40 40 40 41 41 41 46 50 50 46 43 48 54 61 62 65 67 66 67 68 74 76 76 76 76 81 90 97 98 98 95 84 90 75 79 79 73 64 76 76
73 65 56 48 44 44 44 44 43 47 54 58 55 52 51 52 57 66 74 72 71 73 77 83 81 81 81 82 82 86 83 79 84 73 69 78 87 84 82 76 64 64 78
79 76 67 56 52 50 49 48 47 49 57 61 98 60 49 62 63 74 74 73 75 78 76 80 76 76 83 88 86 73 70 77 74 80 73 82 82 94 87 68 71 67 68

GFSMA_925_rhum_138.txt.gz
RH
76 80 78 75 76 74 72 71 68 67 66 67 64 64 65 64 66 67 77 82 80 80 89 99 100 100 98 96 96 96 99 98 96 83 78 81 87 83 83 88 92 94 95
83 82 84 78 80 78 74 73 72 73 71 70 71 70 60 72 80 85 85 90 81 83 88 98 99 100 99 100 100 96 99 87 77 90 86 93 83 87 83 86 90 92 95
81 77 82 75 83 78 72 65 65 70 68 66 60 59 68 73 79 89 86 84 76 73 76 81 75 98 98 99 98 98 98 87 66 78 86 84 99 90 96 93 91 90 92
79 77 74 71 77 69 59 62 68 69 64 55 50 57 65 85 87 82 76 79 77 83 92 95 97 88 94 99 98 100 100 99 99 91 67 69 86 94 100 100 98 100 96
74 74 70 66 59 51 47 51 57 63 51 52 60 89 98 92 86 85 85 84 81 78 76 83 85 91 90 98 98 98 99 99 99 99 98 91 74 68 84 77 98 99 96
66 71 64 56 55 51 46 43 47 57 50 58 83 89 98 93 88 80 70 62 55 48 44 40 50 75 86 87 94 97 98 96 98 99 99 99 98 88 83 89 89 87 95
56 55 48 49 52 46 38 29 29 38 46 46 61 84 78 87 82 65 48 52 45 41 41 42 48 55 59 60 59 82 88 91 92 92 95 95 99 99 97 91 94 96 99
41 40 38 34 31 26 19 18 22 32 41 50 56 84 88 75 70 64 44 41 37 35 41 58 64 71 67 57 46 38 74 79 86 86 84 93 99 100 99 99 99 99 98
34 29 26 23 22 20 18 20 20 28 37 45 41 64 71 88 89 79 69 49 40 31 37 82 78 74 60 48 37 29 66 76 81 81 78 80 87 93 97 97 99 100 100
30 24 21 20 20 20 19 22 23 25 36 30 34 41 53 53 89 87 66 57 41 27 35 50 75 62 58 55 52 56 68 74 78 81 76 74 78 85 90 89 92 98 97
35 30 24 19 19 19 20 23 27 26 29 27 32 38 42 64 61 73 82 64 32 31 31 54 64 60 58 57 60 60 71 72 75 80 77 74 78 81 83 82 85 85 88
39 35 31 21 18 16 18 23 29 31 30 32 33 33 40 54 65 64 76 77 73 46 52 78 60 56 56 56 61 58 69 73 76 79 78 74 77 81 82 82 81 81 81
35 32 33 27 20 19 20 23 28 33 33 35 37 39 38 42 49 52 64 76 86 61 55 59 56 57 56 51 54 65 59 72 77 77 77 76 79 81 82 82 81 82 82
34 32 32 30 24 20 20 20 23 29 35 36 38 42 43 43 48 50 52 70 79 77 55 57 61 59 58 52 54 65 60 62 76 75 75 76 78 81 81 80 81 81 81
33 32 33 32 30 25 24 22 22 24 33 39 39 44 47 46 48 50 51 59 67 74 80 54 60 62 57 50 53 64 61 63 71 73 75 74 77 83 78 80 79 80 80
33 33 34 35 33 29 27 24 23 24 30 37 39 42 46 48 50 50 48 56 62 70 87 66 62 55 54 60 56 65 59 62 62 71 72 72 84 78 76 83 80 79 76
33 34 35 37 36 34 32 30 27 26 28 29 33 38 41 46 52 53 53 52 56 65 86 72 69 63 65 68 63 60 68 60 64 64 69 77 78 74 80 83 81 79 74
35 32 34 36 37 37 35 32 29 27 26 28 29 34 36 42 50 53 54 52 54 56 68 77 70 70 73 71 64 60 69 65 65 65 77 79 75 74 81 82 79 75 75
44 36 33 35 35 37 37 35 32 30 28 28 28 31 31 41 49 52 53 55 56 56 63 72 80 79 76 72 61 65 66 65 68 69 65 71 77 80 82 77 76 77 78
52 46 40 35 34 35 37 37 35 33 31 30 29 30 31 38 47 51 54 56 57 59 63 70 72 73 77 72 74 76 77 75 72 66 64 68 78 78 80 82 79 79 77
62 56 47 41 37 36 36 38 38 36 34 33 32 31 31 36 47 55 57 56 59 63 68 76 86 89 90 82 82 84 86 78 77 69 70 71 78 74 65 62 65 66 82
66 65 58 49 42 39 37 37 38 38 37 35 35 34 34 38 47 62 74 76 76 76 79 88 89 92 89 87 89 86 84 90 91 76 80 92 90 85 65 61 66 79 78
72 72 68 60 51 47 43 39 39 41 40 38 38 38 38 37 39 51 58 67 70 72 80 80 82 84 85 80 75 78 83 89 92 91 94 94 89 80 64 65 58 77 80
73 76 75 72 65 60 52 44 42 45 44 43 44 44 47 54 42 48 61 65 63 62 65 66 68 69 72 77 80 82 96 99 100 92 84 96 71 71 71 70 58 76 87
68 74 78 79 73 70 64 53 46 55 51 48 47 49 75 57 92 55 74 75 73 71 70 70 80 87 89 84 87 98 99 95 88 80 76 70 79 82 79 70 54 57 79
66 72 77 79 78 74 67 58 52 59 56 56 55 53 56 78 95 75 72 75 78 76 73 73 75 78 78 77 87 96 96 89 88 81 67 76 75 83 92 77 71 62 67

GFSMA_925_rhum_141.txt.gz
RH
74 80 78 75 75 73 70 69 69 69 70 69 70 71 63 71 80 78 92 81 81 88 97 97 94 89 97 95 91 97 100 97 76 74 78 93 82 77 82 87 80 84 92
78 76 80 74 76 76 72 68 69 71 74 70 64 64 62 74 84 94 100 88 83 83 98 97 98 98 100 96 98 98 97 93 76 89 97 98 76 80 72 91 89 80 84
78 75 74 68 73 68 60 60 64 69 60 56 52 60 72 88 95 91 88 82 79 77 82 100 100 100 100 100 100 100 100 100 94 88 79 74 80 80 78 96 99 92 86
76 73 68 63 60 50 46 51 55 53 47 51 64 71 99 96 90 89 86 84 83 81 85 97 95 96 100 100 100 99 100 100 99 99 99 100 94 98 87 64 84 87 100
71 71 64 58 52 47 44 46 51 49 40 68 99 98 95 88 87 82 74 62 53 47 44 46 51 59 70 92 95 95 95 97 98 99 100 98 100 100 99 97 92 77 75
63 66 58 52 51 45 36 32 39 41 39 79 99 99 93 87 76 64 58 47 44 42 43 45 47 51 54 60 82 84 86 92 94 94 96 98 99 99 100 96 91 88 87
52 48 45 43 40 27 18 15 17 23 31 55 84 84 92 89 57 54 46 40 35 33 36 43 52 62 55 42 50 74 80 84 83 86 88 98 98 99 100 99 97 99 99
41 38 33 27 22 19 15 13 14 24 34 44 57 85 82 81 71 47 42 38 31 27 37 56 66 66 54 49 42 55 71 75 80 80 78 83 92 96 99 99 100 100 99
35 27 22 20 17 15 14 14 15 22 33 34 35 61 58 73 86 80 66 55 29 29 34 65 72 63 59 55 51 49 73 74 76 79 77 75 77 88 95 97 100 99 100
36 26 21 18 16 15 14 15 20 21 29 24 30 35 58 55 78 70 71 64 31 34 29 64 69 62 59 55 52 56 74 74 75 78 77 74 76 80 86 88 93 93 95
44 32 28 23 18 17 16 16 18 18 20 22 27 31 38 58 63 79 80 63 29 39 62 75 62 60 58 54 50 50 64 70 72 77 77 72 73 81 83 84 82 84 85
45 35 32 28 22 18 16 18 22 25 26 28 28 29 35 46 56 60 74 76 75 46 76 66 62 60 55 48 50 50 42 71 77 78 78 75 74 78 82 82 81 80 81
42 33 33 32 30 22 20 18 19 23 30 33 35 35 34 35 47 53 65 70 82 59 61 62 60 58 56 50 45 58 51 68 78 76 77 78 79 80 82 82 81 80 81
42 37 35 34 34 29 24 23 22 24 31 34 35 37 40 39 41 45 48 61 65 74 60 56 63 61 62 54 50 51 55 54 75 74 76 78 78 82 81 80 81 80 80
38 35 36 35 35 34 30 27 24 23 25 30 34 37 40 42 43 45 48 53 60 59 70 55 58 62 64 51 51 57 59 56 77 76 76 75 77 85 80 78 81 79 80
41 35 34 35 35 36 35 31 29 26 26 24 30 37 38 41 46 48 49 50 60 64 77 57 56 55 46 47 56 60 52 61 61 70 76 74 79 81 80 81 81 78 80
50 43 38 35 35 36 37 35 34 31 29 28 29 35 38 40 46 51 53 53 56 64 84 70 65 60 56 56 57 57 50 62 62 64 77 75 82 82 79 81 82 80 82
58 52 47 40 36 37 38 39 38 35 32 30 29 30 31 38 43 49 56 56 56 54 66 78 67 66 62 64 61 59 52 60 63 64 75 81 78 78 79 84 80 80 79
64 61 56 49 42 38 36 37 38 38 35 33 31 30 29 32 35 42 51 56 56 56 60 67 73 72 72 70 63 62 65 69 71 68 73 72 78 84 84 84 83 83 82
66 66 64 60 52 46 41 38 36 38 37 36 34 32 31 31 31 34 45 50 55 59 61 67 72 74 73 69 78 78 76 76 74 71 66 71 80 80 83 83 83 84 84
64 65 66 65 64 59 51 44 40 38 38 38 37 35 34 33 31 32 40 47 54 60 64 73 83 83 87 86 84 81 88 82 76 71 68 67 70 74 67 63 60 53 62
62 69 70 71 69 66 63 56 48 43 41 40 39 38 36 36 35 33 46 73 70 66 67 75 86 92 91 84 84 83 89 94 96 76 78 80 87 78 70 64 58 83 86
54 58 64 72 74 72 70 66 60 54 49 45 42 40 40 38 38 37 39 56 71 77 88 85 86 87 87 81 82 82 80 88 91 86 92 98 88 84 68 58 66 76 83
59 62 63 68 75 73 75 74 70 62 63 53 49 46 44 42 42 42 83 63 51 55 60 65 69 81 76 66 70 76 80 91 98 98 99 97 81 76 65 63 57 73 86
56 58 61 64 71 70 74 77 74 67 68 62 56 53 50 49 47 54 97 80 88 65 57 64 72 71 74 84 90 98 99 100 96 89 81 82 80 73 71 67 55 54 63
60 59 58 58 63 67 65 74 73 70 69 68 65 61 58 57 55 75 99 99 87 80 77 77 72 74 80 85 86 84 88 99 98 90 68 83 74 77 86 78 66 56 58

GFSMA_925_rhum_144.txt.gz
RH
73 76 76 74 74 74 70 66 66 68 70 71 69 68 65 75 87 92 99 97 86 96 96 91 90 95 95 96 90 88 85 87 87 70 98 97 88 88 84 76 78 87 89
74 72 72 68 70 66 61 64 67 66 63 63 58 62 73 88 99 90 90 92 87 100 100 100 98 98 96 93 97 98 99 98 99 94 82 89 86 87 77 72 69 88 97
78 71 67 62 60 51 51 56 62 51 48 53 58 72 98 99 95 90 89 88 96 100 99 99 100 100 100 99 95 99 99 100 100 99 99 98 98 91 81 75 84 88 86
74 72 65 60 53 48 45 47 51 42 56 90 98 99 98 94 92 87 80 70 64 58 52 47 50 77 90 94 94 94 97 97 93 97 98 98 95 94 97 90 81 87 78
68 68 62 55 51 44 37 37 44 35 67 99 96 94 97 89 79 66 57 51 48 46 44 42 39 38 51 81 83 86 87 94 92 93 98 100 99 98 99 100 98 90 85
60 61 52 46 43 31 16 11 22 30 61 98 93 95 89 78 66 57 49 45 40 35 35 37 40 43 42 73 77 79 83 84 82 89 94 97 98 98 100 98 100 96 95
48 44 41 35 26 17 13 10 11 17 28 86 82 83 93 62 57 50 43 38 34 32 35 48 56 53 47 42 71 75 74 78 81 80 76 83 92 94 99 100 98 99 100
42 38 32 25 19 16 14 13 13 20 28 33 54 88 88 85 60 47 42 46 34 30 38 62 64 58 55 52 55 76 77 76 76 79 75 74 74 82 94 100 99 100 100
39 30 24 19 16 14 13 13 13 14 22 27 33 56 60 66 83 57 55 59 34 29 32 59 65 62 59 54 49 46 65 74 74 78 77 73 72 76 80 94 97 99 100
45 37 25 21 18 16 16 17 19 19 22 23 28 35 54 56 69 60 76 75 43 33 34 65 65 63 60 54 47 42 38 67 71 75 78 73 71 74 80 81 86 90 94
50 45 32 29 24 20 18 17 20 24 26 26 28 30 37 51 61 78 74 58 33 39 64 67 65 62 57 50 44 41 34 67 74 77 78 75 74 75 80 80 79 79 83
53 48 38 33 31 26 22 20 20 23 26 28 29 30 31 37 49 54 69 68 66 39 58 67 64 60 54 49 46 41 33 59 74 77 79 77 78 79 79 81 78 79 78
53 47 42 35 33 32 27 22 20 19 21 25 29 31 34 35 43 52 62 64 76 54 52 68 64 60 58 56 48 44 40 44 71 76 77 80 81 81 82 82 81 78 76
55 52 43 36 34 33 32 29 25 23 22 24 30 34 36 38 41 46 49 56 59 67 58 52 60 62 62 62 49 45 44 44 55 78 77 80 78 81 83 81 81 82 80
49 47 42 36 34 33 33 34 31 28 26 24 25 32 37 38 43 44 47 52 53 52 57 45 54 60 62 64 50 51 54 49 57 74 78 78 78 80 83 82 81 80 80
54 52 49 43 38 36 35 36 36 32 31 29 28 30 34 35 38 44 47 50 56 59 68 45 46 48 50 46 47 51 54 50 48 58 79 80 78 82 83 82 82 78 74
64 62 58 53 47 43 38 38 38 37 36 34 33 31 29 32 34 40 45 50 54 62 81 65 58 53 49 47 49 52 50 46 50 54 69 80 78 84 83 82 82 83 80
68 68 67 63 58 52 47 41 40 39 39 38 36 35 32 32 32 37 43 48 54 56 65 76 60 62 61 59 56 56 49 52 60 63 74 78 81 81 81 82 82 82 83
62 63 67 68 67 64 58 51 44 41 41 40 39 37 34 33 33 34 38 44 52 57 61 70 71 68 66 68 62 60 57 62 64 69 74 76 79 82 86 85 81 88 85
61 62 64 66 66 66 65 62 55 48 44 41 40 39 37 35 34 32 34 35 43 56 62 68 77 73 71 65 68 73 72 70 69 67 61 69 73 81 86 77 85 88 86
50 52 58 62 67 70 68 67 64 60 53 47 43 41 39 38 36 34 34 33 39 52 63 74 81 79 78 75 77 75 82 79 79 66 66 64 64 67 72 64 62 54 59
51 53 55 60 61 65 68 71 72 68 64 58 51 47 43 40 40 38 36 42 34 43 63 79 79 82 78 75 79 82 85 94 94 70 81 75 77 81 72 67 65 61 84
53 54 56 61 61 58 62 68 73 76 72 68 64 58 52 47 43 41 40 66 75 86 89 96 79 80 83 82 80 84 86 87 88 77 86 96 90 90 73 62 66 76 82
52 55 54 55 59 54 58 64 72 80 80 74 70 67 62 56 50 46 43 42 47 60 78 100 98 88 88 84 78 80 69 75 86 93 96 97 88 82 73 68 60 67 82
42 44 47 51 56 54 53 57 64 76 82 79 74 71 68 64 58 54 59 50 56 57 92 94 92 74 72 67 72 76 86 100 94 90 95 100 91 81 76 59 56 67 87
51 50 48 45 46 48 45 53 56 70 83 79 75 71 68 68 64 62 71 73 87 90 96 96 96 82 86 87 88 89 100 99 88 88 85 93 84 74 79 74 65 59 60